Observation data for Sterling City on 05/25/2019      Previous  Date  Next       Current Mesonet Observations  Soil Data  Daily Summary Page  Observations in Plain Language
KSC1 250500Z 13008KT 23/20 A2994 RMK A01 T02250195  RH  083%=      5-min Rain = 0
KSC1 250501Z 13008KT 22/20 A2993 RMK A01 T02240195  RH  083%=      5-min Rain = 0
KSC1 250502Z 13008KT 22/20 A2993 RMK A01 T02240195  RH  084%=      5-min Rain = 0
KSC1 250503Z 13007KT 22/20 A2993 RMK A01 T02230195  RH  084%=      5-min Rain = 0
KSC1 250504Z 13010KT 22/20 A2993 RMK A01 T02230195  RH  084%=      5-min Rain = 0
KSC1 250505Z 14009KT 22/20 A2993 RMK A01 T02230195  RH  084%=      5-min Rain = 0
KSC1 250506Z 14009KT 22/20 A2993 RMK A01 T02230195  RH  084%=      5-min Rain = 0
KSC1 250507Z 14008KT 22/20 A2993 RMK A01 T02220195  RH  084%=      5-min Rain = 0
KSC1 250508Z 14009KT 22/20 A2993 RMK A01 T02230195  RH  084%=      5-min Rain = 0
KSC1 250509Z 13008KT 22/20 A2993 RMK A01 T02230195  RH  085%=      5-min Rain = 0
KSC1 250510Z 14007KT 22/20 A2993 RMK A01 T02220195  RH  085%=      5-min Rain = 0
KSC1 250511Z 13008KT 22/20 A2993 RMK A01 T02220195  RH  085%=      5-min Rain = 0
KSC1 250512Z 13008KT 22/20 A2993 RMK A01 T02220195  RH  085%=      5-min Rain = 0
KSC1 250513Z 13008KT 22/20 A2993 RMK A01 T02220195  RH  085%=      5-min Rain = 0
KSC1 250514Z 14008KT 22/20 A2994 RMK A01 T02220195  RH  085%=      5-min Rain = 0
KSC1 250515Z 14009KT 22/20 A2993 RMK A01 T02220196  RH  085%=      5-min Rain = 0
KSC1 250516Z 14008KT 22/20 A2993 RMK A01 T02220195  RH  085%=      5-min Rain = 0
KSC1 250517Z 13009KT 22/20 A2993 RMK A01 T02220195  RH  085%=      5-min Rain = 0
KSC1 250518Z 13010KT 22/20 A2993 RMK A01 T02220195  RH  085%=      5-min Rain = 0
KSC1 250519Z 13009KT 22/20 A2993 RMK A01 T02220195  RH  085%=      5-min Rain = 0
KSC1 250520Z 13008KT 22/20 A2993 RMK A01 T02220195  RH  085%=      5-min Rain = 0
KSC1 250521Z 13009KT 22/20 A2993 RMK A01 T02220196  RH  085%=      5-min Rain = 0
KSC1 250522Z 13008KT 22/20 A2993 RMK A01 T02220195  RH  085%=      5-min Rain = 0
KSC1 250523Z 13010KT 22/20 A2993 RMK A01 T02220196  RH  085%=      5-min Rain = 0
KSC1 250524Z 13007KT 22/20 A2993 RMK A01 T02220195  RH  085%=      5-min Rain = 0
KSC1 250525Z 13008KT 22/20 A2993 RMK A01 T02220195  RH  085%=      5-min Rain = 0
KSC1 250526Z 13009KT 22/20 A2993 RMK A01 T02220195  RH  085%=      5-min Rain = 0
KSC1 250527Z 13007KT 22/20 A2993 RMK A01 T02220195  RH  085%=      5-min Rain = 0
KSC1 250528Z 14007KT 22/20 A2993 RMK A01 T02220195  RH  085%=      5-min Rain = 0
KSC1 250529Z 13008KT 22/20 A2993 RMK A01 T02220195  RH  085%=      5-min Rain = 0
KSC1 250530Z 13007KT 22/20 A2993 RMK A01 T02220195  RH  085%=      5-min Rain = 0
KSC1 250531Z 13009KT 22/20 A2993 RMK A01 T02220196  RH  085%=      5-min Rain = 0
KSC1 250532Z 13008KT 22/20 A2993 RMK A01 T02210196  RH  085%=      5-min Rain = 0
KSC1 250533Z 13007KT 22/20 A2993 RMK A01 T02210196  RH  086%=      5-min Rain = 0
KSC1 250534Z 13008KT 22/20 A2994 RMK A01 T02210196  RH  086%=      5-min Rain = 0
KSC1 250535Z 13008KT 22/20 A2994 RMK A01 T02210196  RH  086%=      5-min Rain = 0
KSC1 250536Z 13008KT 22/20 A2994 RMK A01 T02200196  RH  086%=      5-min Rain = 0
KSC1 250537Z 13007KT 22/20 A2994 RMK A01 T02200196  RH  086%=      5-min Rain = 0
KSC1 250538Z 13007KT 22/20 A2994 RMK A01 T02200197  RH  086%=      5-min Rain = 0
KSC1 250539Z 13006KT 22/20 A2994 RMK A01 T02190196  RH  087%=      5-min Rain = 0
KSC1 250540Z 13006KT 22/20 A2994 RMK A01 T02190197  RH  087%=      5-min Rain = 0
KSC1 250541Z 13005KT 22/20 A2994 RMK A01 T02190197  RH  087%=      5-min Rain = 0
KSC1 250542Z 14005KT 22/20 A2994 RMK A01 T02180197  RH  088%=      5-min Rain = 0
KSC1 250543Z 13005KT 22/20 A2994 RMK A01 T02180197  RH  088%=      5-min Rain = 0
KSC1 250544Z 13004KT 22/20 A2994 RMK A01 T02180197  RH  088%=      5-min Rain = 0
KSC1 250545Z 12004KT 22/20 A2995 RMK A01 T02170197  RH  088%=      5-min Rain = 0
KSC1 250546Z 13005KT 22/20 A2995 RMK A01 T02170197  RH  088%=      5-min Rain = 0
KSC1 250547Z 13004KT 22/20 A2995 RMK A01 T02170197  RH  088%=      5-min Rain = 0
KSC1 250548Z 13005KT 22/20 A2995 RMK A01 T02170197  RH  088%=      5-min Rain = 0
KSC1 250549Z 12005KT 22/20 A2995 RMK A01 T02170198  RH  089%=      5-min Rain = 0
KSC1 250550Z 13004KT 22/20 A2995 RMK A01 T02170198  RH  089%=      5-min Rain = 0
KSC1 250551Z 12004KT 22/20 A2995 RMK A01 T02170198  RH  089%=      5-min Rain = 0
KSC1 250552Z 11004KT 22/20 A2995 RMK A01 T02170198  RH  089%=      5-min Rain = 0
KSC1 250553Z 12003KT 22/20 A2995 RMK A01 T02170198  RH  089%=      5-min Rain = 0
KSC1 250554Z 12004KT 22/20 A2995 RMK A01 T02170198  RH  089%=      5-min Rain = 0
KSC1 250555Z 11004KT 22/20 A2995 RMK A01 T02170199  RH  089%=      5-min Rain = 0
KSC1 250556Z 11004KT 22/20 A2995 RMK A01 T02170199  RH  089%=      5-min Rain = 0
KSC1 250557Z 13004KT 22/20 A2995 RMK A01 T02170199  RH  090%=      5-min Rain = 0
KSC1 250558Z 13004KT 22/20 A2995 RMK A01 T02170199  RH  090%=      5-min Rain = 0
KSC1 250559Z 12004KT 22/20 A2995 RMK A01 T02170199  RH  089%=      5-min Rain = 0
KSC1 250600Z 12005KT 22/20 A2995 RMK A01 T02170199  RH  089%=      5-min Rain = 0
KSC1 250601Z 12004KT 22/20 A2995 RMK A01 T02180198  RH  089%=      5-min Rain = 0
KSC1 250602Z 11005KT 22/20 A2995 RMK A01 T02190199  RH  088%=      5-min Rain = 0
KSC1 250603Z 12004KT 22/20 A2995 RMK A01 T02190199  RH  088%=      5-min Rain = 0
KSC1 250604Z 11005KT 22/20 A2995 RMK A01 T02190199  RH  088%=      5-min Rain = 0
KSC1 250605Z 11005KT 22/20 A2995 RMK A01 T02190199  RH  089%=      5-min Rain = 0
KSC1 250606Z 12005KT 22/20 A2995 RMK A01 T02190199  RH  089%=      5-min Rain = 0
KSC1 250607Z 12007KT 22/20 A2995 RMK A01 T02190199  RH  088%=      5-min Rain = 0
KSC1 250608Z 11007KT 22/20 A2995 RMK A01 T02200199  RH  088%=      5-min Rain = 0
KSC1 250609Z 11007KT 22/20 A2995 RMK A01 T02210199  RH  087%=      5-min Rain = 0
KSC1 250610Z 12005KT 22/20 A2995 RMK A01 T02220199  RH  087%=      5-min Rain = 0
KSC1 250611Z 12005KT 22/20 A2995 RMK A01 T02230199  RH  086%=      5-min Rain = 0
KSC1 250612Z 13004KT 22/20 A2995 RMK A01 T02230199  RH  086%=      5-min Rain = 0
KSC1 250613Z 12006KT 22/20 A2995 RMK A01 T02230199  RH  086%=      5-min Rain = 0
KSC1 250614Z 12005KT 22/20 A2995 RMK A01 T02230199  RH  086%=      5-min Rain = 0
KSC1 250615Z 12005KT 22/20 A2995 RMK A01 T02240199  RH  086%=      5-min Rain = 0
KSC1 250616Z 12005KT 22/20 A2995 RMK A01 T02240199  RH  086%=      5-min Rain = 0
KSC1 250617Z 12006KT 22/20 A2995 RMK A01 T02240199  RH  086%=      5-min Rain = 0
KSC1 250618Z 12006KT 22/20 A2995 RMK A01 T02240199  RH  086%=      5-min Rain = 0
KSC1 250619Z 12007KT 23/20 A2995 RMK A01 T02250199  RH  085%=      5-min Rain = 0
KSC1 250620Z 12007KT 23/20 A2995 RMK A01 T02250199  RH  085%=      5-min Rain = 0
KSC1 250621Z 12006KT 23/20 A2995 RMK A01 T02250199  RH  085%=      5-min Rain = 0
KSC1 250622Z 12007KT 23/20 A2995 RMK A01 T02260199  RH  085%=      5-min Rain = 0
KSC1 250623Z 12007KT 23/20 A2995 RMK A01 T02260199  RH  085%=      5-min Rain = 0
KSC1 250624Z 12007KT 23/20 A2995 RMK A01 T02260199  RH  085%=      5-min Rain = 0
KSC1 250625Z 12008KT 23/20 A2995 RMK A01 T02260198  RH  085%=      5-min Rain = 0
KSC1 250626Z 12006KT 23/20 A2994 RMK A01 T02260198  RH  084%=      5-min Rain = 0
KSC1 250627Z 11008KT 23/20 A2994 RMK A01 T02260199  RH  084%=      5-min Rain = 0
KSC1 250628Z 12008KT 23/20 A2994 RMK A01 T02260198  RH  084%=      5-min Rain = 0
KSC1 250629Z 12007KT 23/20 A2994 RMK A01 T02260198  RH  084%=      5-min Rain = 0
KSC1 250630Z 11008KT 23/20 A2994 RMK A01 T02260198  RH  084%=      5-min Rain = 0
KSC1 250631Z 11009KT 23/20 A2994 RMK A01 T02260198  RH  084%=      5-min Rain = 0
KSC1 250632Z 11009KT 23/20 A2994 RMK A01 T02260198  RH  084%=      5-min Rain = 0
KSC1 250633Z 11009KT 23/20 A2994 RMK A01 T02260199  RH  084%=      5-min Rain = 0
KSC1 250634Z 11008KT 23/20 A2994 RMK A01 T02260198  RH  084%=      5-min Rain = 0
KSC1 250635Z 11007G12KT 23/20 A2994 RMK A01 T02260199  RH  085%=      5-min Rain = 0
KSC1 250636Z 11008KT 23/20 A2994 RMK A01 T02250199  RH  085%=      5-min Rain = 0
KSC1 250637Z 12008KT 23/20 A2994 RMK A01 T02260199  RH  085%=      5-min Rain = 0
KSC1 250638Z 12008KT 23/20 A2994 RMK A01 T02260199  RH  085%=      5-min Rain = 0
KSC1 250639Z 11010KT 23/20 A2994 RMK A01 T02260198  RH  085%=      5-min Rain = 0
KSC1 250640Z 11009KT 23/20 A2994 RMK A01 T02260198  RH  084%=      5-min Rain = 0
KSC1 250641Z 12009KT 23/20 A2994 RMK A01 T02260198  RH  084%=      5-min Rain = 0
KSC1 250642Z 11011KT 23/20 A2994 RMK A01 T02260198  RH  084%=      5-min Rain = 0
KSC1 250643Z 12011KT 23/20 A2993 RMK A01 T02260198  RH  084%=      5-min Rain = 0
KSC1 250644Z 12010KT 23/20 A2993 RMK A01 T02270197  RH  083%=      5-min Rain = 0
KSC1 250645Z 12010KT 23/20 A2993 RMK A01 T02270198  RH  084%=      5-min Rain = 0
KSC1 250646Z 12011KT 23/20 A2993 RMK A01 T02270198  RH  084%=      5-min Rain = 0
KSC1 250647Z 13011KT 23/20 A2993 RMK A01 T02270197  RH  083%=      5-min Rain = 0
KSC1 250648Z 12011KT 23/20 A2993 RMK A01 T02270197  RH  083%=      5-min Rain = 0
KSC1 250649Z 12012KT 23/20 A2993 RMK A01 T02270197  RH  083%=      5-min Rain = 0
KSC1 250650Z 12011KT 23/20 A2993 RMK A01 T02270197  RH  083%=      5-min Rain = 0
KSC1 250651Z 12011KT 23/20 A2993 RMK A01 T02270197  RH  083%=      5-min Rain = 0
KSC1 250652Z 12010KT 23/20 A2993 RMK A01 T02270197  RH  083%=      5-min Rain = 0
KSC1 250653Z 12010KT 23/20 A2993 RMK A01 T02270197  RH  083%=      5-min Rain = 0
KSC1 250654Z 12011KT 23/20 A2993 RMK A01 T02270197  RH  083%=      5-min Rain = 0
KSC1 250655Z 12010KT 23/20 A2993 RMK A01 T02260197  RH  084%=      5-min Rain = 0
KSC1 250656Z 12010KT 23/20 A2993 RMK A01 T02260197  RH  084%=      5-min Rain = 0
KSC1 250657Z 12010KT 23/20 A2993 RMK A01 T02260197  RH  084%=      5-min Rain = 0
KSC1 250658Z 12011KT 23/20 A2992 RMK A01 T02260197  RH  084%=      5-min Rain = 0
KSC1 250659Z 12009KT 23/20 A2992 RMK A01 T02260197  RH  084%=      5-min Rain = 0
KSC1 250700Z 13009KT 23/20 A2992 RMK A01 T02260197  RH  084%=      5-min Rain = 0
KSC1 250701Z 12011G17KT 23/20 A2992 RMK A01 T02250196  RH  084%=      5-min Rain = 0
KSC1 250702Z 12011KT 23/20 A2992 RMK A01 T02250196  RH  084%=      5-min Rain = 0
KSC1 250703Z 12011KT 23/20 A2992 RMK A01 T02260196  RH  083%=      5-min Rain = 0
KSC1 250704Z 12010KT 23/20 A2992 RMK A01 T02250196  RH  084%=      5-min Rain = 0
KSC1 250705Z 12009KT 23/20 A2992 RMK A01 T02250196  RH  084%=      5-min Rain = 0
KSC1 250706Z 12011KT 23/20 A2992 RMK A01 T02250196  RH  084%=      5-min Rain = 0
KSC1 250707Z 11010KT 23/20 A2992 RMK A01 T02250196  RH  084%=      5-min Rain = 0
KSC1 250708Z 11011KT 23/20 A2992 RMK A01 T02250196  RH  084%=      5-min Rain = 0
KSC1 250709Z 11010KT 23/20 A2992 RMK A01 T02250195  RH  083%=      5-min Rain = 0
KSC1 250710Z 12011KT 23/20 A2992 RMK A01 T02250195  RH  083%=      5-min Rain = 0
KSC1 250711Z 11008KT 22/20 A2992 RMK A01 T02240195  RH  083%=      5-min Rain = 0
KSC1 250712Z 11008KT 23/20 A2992 RMK A01 T02250196  RH  084%=      5-min Rain = 0
KSC1 250713Z 11009KT 22/20 A2992 RMK A01 T02240196  RH  084%=      5-min Rain = 0
KSC1 250714Z 12009KT 22/20 A2992 RMK A01 T02240196  RH  084%=      5-min Rain = 0
KSC1 250715Z 11008KT 22/20 A2992 RMK A01 T02240195  RH  084%=      5-min Rain = 0
KSC1 250716Z 11009KT 22/20 A2992 RMK A01 T02240195  RH  084%=      5-min Rain = 0
KSC1 250717Z 11008KT 23/20 A2992 RMK A01 T02250195  RH  083%=      5-min Rain = 0
KSC1 250718Z 11010KT 23/20 A2992 RMK A01 T02250195  RH  083%=      5-min Rain = 0
KSC1 250719Z 11010KT 23/20 A2992 RMK A01 T02250195  RH  083%=      5-min Rain = 0
KSC1 250720Z 11009KT 23/20 A2992 RMK A01 T02250195  RH  083%=      5-min Rain = 0
KSC1 250721Z 11008KT 23/20 A2992 RMK A01 T02250195  RH  083%=      5-min Rain = 0
KSC1 250722Z 12008KT 23/20 A2992 RMK A01 T02250195  RH  083%=      5-min Rain = 0
KSC1 250723Z 11009KT 23/20 A2992 RMK A01 T02250195  RH  083%=      5-min Rain = 0
KSC1 250724Z 11011KT 23/20 A2992 RMK A01 T02250195  RH  083%=      5-min Rain = 0
KSC1 250725Z 12009KT 23/20 A2992 RMK A01 T02250195  RH  083%=      5-min Rain = 0
KSC1 250726Z 11010KT 23/19 A2992 RMK A01 T02250194  RH  083%=      5-min Rain = 0
KSC1 250727Z 11009KT 23/19 A2992 RMK A01 T02250194  RH  082%=      5-min Rain = 0
KSC1 250728Z 11008KT 23/20 A2992 RMK A01 T02260195  RH  082%=      5-min Rain = 0
KSC1 250729Z 10007KT 23/20 A2992 RMK A01 T02260195  RH  083%=      5-min Rain = 0
KSC1 250730Z 10009KT 23/20 A2992 RMK A01 T02250195  RH  083%=      5-min Rain = 0
KSC1 250731Z 11009KT 23/20 A2992 RMK A01 T02250195  RH  083%=      5-min Rain = 0
KSC1 250732Z 11008KT 23/20 A2992 RMK A01 T02250195  RH  083%=      5-min Rain = 0
KSC1 250733Z 11008KT 23/20 A2992 RMK A01 T02250195  RH  083%=      5-min Rain = 0
KSC1 250734Z 11009KT 23/20 A2992 RMK A01 T02250195  RH  083%=      5-min Rain = 0
KSC1 250735Z 11008KT 23/20 A2992 RMK A01 T02250195  RH  083%=      5-min Rain = 0
KSC1 250736Z 12009KT 22/20 A2992 RMK A01 T02240195  RH  084%=      5-min Rain = 0
KSC1 250737Z 11008G13KT 23/20 A2992 RMK A01 T02250195  RH  084%=      5-min Rain = 0
KSC1 250738Z 11009KT 23/20 A2992 RMK A01 T02250195  RH  083%=      5-min Rain = 0
KSC1 250739Z 11007KT 22/20 A2992 RMK A01 T02240195  RH  083%=      5-min Rain = 0
KSC1 250740Z 12008KT 22/20 A2992 RMK A01 T02240195  RH  084%=      5-min Rain = 0
KSC1 250741Z 11010KT 22/20 A2992 RMK A01 T02240195  RH  084%=      5-min Rain = 0
KSC1 250742Z 11010KT 22/20 A2992 RMK A01 T02240195  RH  083%=      5-min Rain = 0
KSC1 250743Z 11009KT 22/19 A2992 RMK A01 T02240194  RH  083%=      5-min Rain = 0
KSC1 250744Z 12008KT 22/19 A2992 RMK A01 T02240194  RH  083%=      5-min Rain = 0
KSC1 250745Z 11008KT 22/20 A2992 RMK A01 T02240195  RH  083%=      5-min Rain = 0
KSC1 250746Z 11010KT 22/20 A2992 RMK A01 T02240195  RH  084%=      5-min Rain = 0
KSC1 250747Z 12010G15KT 22/20 A2992 RMK A01 T02240195  RH  083%=      5-min Rain = 0
KSC1 250748Z 11010KT 22/19 A2992 RMK A01 T02240194  RH  083%=      5-min Rain = 0
KSC1 250749Z 11012KT 22/19 A2992 RMK A01 T02240194  RH  083%=      5-min Rain = 0
KSC1 250750Z 11009KT 22/19 A2992 RMK A01 T02240194  RH  083%=      5-min Rain = 0
KSC1 250751Z 12009KT 23/19 A2992 RMK A01 T02250194  RH  083%=      5-min Rain = 0
KSC1 250752Z 11008KT 23/20 A2992 RMK A01 T02250195  RH  083%=      5-min Rain = 0
KSC1 250753Z 11007KT 22/20 A2991 RMK A01 T02240195  RH  083%=      5-min Rain = 0
KSC1 250754Z 11009KT 22/20 A2992 RMK A01 T02240195  RH  084%=      5-min Rain = 0
KSC1 250755Z 12012KT 22/19 A2992 RMK A01 T02240194  RH  083%=      5-min Rain = 0
KSC1 250756Z 12011KT 22/19 A2992 RMK A01 T02240194  RH  083%=      5-min Rain = 0
KSC1 250757Z 11008KT 22/19 A2992 RMK A01 T02240194  RH  083%=      5-min Rain = 0
KSC1 250758Z 12011KT 22/19 A2992 RMK A01 T02240194  RH  083%=      5-min Rain = 0
KSC1 250759Z 11009KT 22/19 A2992 RMK A01 T02240194  RH  083%=      5-min Rain = 0
KSC1 250800Z 12011KT 23/20 A2992 RMK A01 T02250195  RH  083%=      5-min Rain = 0
KSC1 250801Z 11010KT 22/19 A2992 RMK A01 T02240194  RH  083%=      5-min Rain = 0
KSC1 250802Z 12009KT 23/20 A2992 RMK A01 T02250195  RH  083%=      5-min Rain = 0
KSC1 250803Z 12010KT 23/20 A2992 RMK A01 T02250195  RH  083%=      5-min Rain = 0
KSC1 250804Z 11008KT 23/20 A2992 RMK A01 T02250195  RH  083%=      5-min Rain = 0
KSC1 250805Z 11009KT 23/20 A2992 RMK A01 T02250195  RH  083%=      5-min Rain = 0
KSC1 250806Z 12009KT 23/20 A2992 RMK A01 T02250196  RH  083%=      5-min Rain = 0
KSC1 250807Z 11010KT 23/20 A2992 RMK A01 T02250196  RH  084%=      5-min Rain = 0
KSC1 250808Z 11011KT 22/20 A2992 RMK A01 T02240195  RH  084%=      5-min Rain = 0
KSC1 250809Z 11007KT 22/20 A2992 RMK A01 T02240195  RH  083%=      5-min Rain = 0
KSC1 250810Z 11008KT 22/20 A2992 RMK A01 T02240195  RH  084%=      5-min Rain = 0
KSC1 250811Z 12008KT 22/20 A2992 RMK A01 T02240196  RH  084%=      5-min Rain = 0
KSC1 250812Z 11009KT 22/20 A2992 RMK A01 T02240196  RH  084%=      5-min Rain = 0
KSC1 250813Z 11009KT 22/20 A2992 RMK A01 T02240196  RH  084%=      5-min Rain = 0
KSC1 250814Z 11007KT 22/20 A2992 RMK A01 T02240196  RH  084%=      5-min Rain = 0
KSC1 250815Z 12009KT 22/20 A2992 RMK A01 T02240196  RH  084%=      5-min Rain = 0
KSC1 250816Z 12008KT 22/20 A2992 RMK A01 T02240196  RH  084%=      5-min Rain = 0
KSC1 250817Z 11008KT 22/20 A2992 RMK A01 T02240196  RH  084%=      5-min Rain = 0
KSC1 250818Z 11007KT 22/20 A2992 RMK A01 T02240196  RH  084%=      5-min Rain = 0
KSC1 250819Z 11007KT 22/20 A2992 RMK A01 T02240196  RH  084%=      5-min Rain = 0
KSC1 250820Z 11009KT 22/20 A2992 RMK A01 T02240197  RH  085%=      5-min Rain = 0
KSC1 250821Z 11008KT 22/20 A2992 RMK A01 T02240197  RH  085%=      5-min Rain = 0
KSC1 250822Z 11007KT 22/20 A2992 RMK A01 T02240197  RH  085%=      5-min Rain = 0
KSC1 250823Z 11008G13KT 22/20 A2992 RMK A01 T02240197  RH  085%=      5-min Rain = 0
KSC1 250824Z 11010KT 22/20 A2992 RMK A01 T02240196  RH  084%=      5-min Rain = 0
KSC1 250825Z 11009KT 22/20 A2992 RMK A01 T02240196  RH  084%=      5-min Rain = 0
KSC1 250826Z 11008KT 22/20 A2992 RMK A01 T02240196  RH  084%=      5-min Rain = 0
KSC1 250827Z 11010KT 22/20 A2992 RMK A01 T02240196  RH  084%=      5-min Rain = 0
KSC1 250828Z 12007KT 22/20 A2992 RMK A01 T02240197  RH  084%=      5-min Rain = 0
KSC1 250829Z 11009KT 22/20 A2992 RMK A01 T02240197  RH  085%=      5-min Rain = 0
KSC1 250830Z 11010KT 22/20 A2991 RMK A01 T02240197  RH  085%=      5-min Rain = 0
KSC1 250831Z 11009KT 22/20 A2992 RMK A01 T02240197  RH  085%=      5-min Rain = 0
KSC1 250832Z 12010KT 22/20 A2992 RMK A01 T02240196  RH  085%=      5-min Rain = 0
KSC1 250833Z 11008KT 22/20 A2992 RMK A01 T02240197  RH  084%=      5-min Rain = 0
KSC1 250834Z 11008KT 22/20 A2992 RMK A01 T02240197  RH  084%=      5-min Rain = 0
KSC1 250835Z 12010KT 22/20 A2992 RMK A01 T02240197  RH  085%=      5-min Rain = 0
KSC1 250836Z 12008KT 22/20 A2992 RMK A01 T02240198  RH  085%=      5-min Rain = 0
KSC1 250837Z 12009KT 22/20 A2992 RMK A01 T02240197  RH  085%=      5-min Rain = 0
KSC1 250838Z 11009KT 22/20 A2992 RMK A01 T02240197  RH  085%=      5-min Rain = 0
KSC1 250839Z 12011KT 22/20 A2992 RMK A01 T02240197  RH  085%=      5-min Rain = 0
KSC1 250840Z 12012KT 22/20 A2992 RMK A01 T02240197  RH  085%=      5-min Rain = 0
KSC1 250841Z 12009KT 23/20 A2992 RMK A01 T02250197  RH  084%=      5-min Rain = 0
KSC1 250842Z 13009KT 22/20 A2991 RMK A01 T02240197  RH  085%=      5-min Rain = 0
KSC1 250843Z 13010KT 23/20 A2991 RMK A01 T02250198  RH  085%=      5-min Rain = 0
KSC1 250844Z 12009KT 23/20 A2991 RMK A01 T02250198  RH  085%=      5-min Rain = 0
KSC1 250845Z 12011G16KT 23/20 A2991 RMK A01 T02250198  RH  085%=      5-min Rain = 0
KSC1 250846Z 13010KT 23/20 A2991 RMK A01 T02250198  RH  085%=      5-min Rain = 0
KSC1 250847Z 12011KT 23/20 A2991 RMK A01 T02250198  RH  085%=      5-min Rain = 0
KSC1 250848Z 12010G15KT 23/20 A2991 RMK A01 T02250198  RH  085%=      5-min Rain = 0
KSC1 250849Z 13011KT 23/20 A2991 RMK A01 T02250198  RH  085%=      5-min Rain = 0
KSC1 250850Z 12009KT 23/20 A2991 RMK A01 T02250198  RH  085%=      5-min Rain = 0
KSC1 250851Z 12011KT 23/20 A2991 RMK A01 T02250198  RH  085%=      5-min Rain = 0
KSC1 250852Z 13011KT 23/20 A2991 RMK A01 T02260199  RH  085%=      5-min Rain = 0
KSC1 250853Z 13012KT 23/20 A2991 RMK A01 T02260198  RH  085%=      5-min Rain = 0
KSC1 250854Z 13009KT 23/20 A2991 RMK A01 T02260199  RH  085%=      5-min Rain = 0
KSC1 250855Z 14011KT 23/20 A2991 RMK A01 T02260199  RH  085%=      5-min Rain = 0
KSC1 250856Z 13009KT 23/20 A2991 RMK A01 T02260199  RH  084%=      5-min Rain = 0
KSC1 250857Z 13010KT 23/20 A2991 RMK A01 T02260199  RH  085%=      5-min Rain = 0
KSC1 250858Z 13009G14KT 23/20 A2991 RMK A01 T02260200  RH  085%=      5-min Rain = 0
KSC1 250859Z 13010KT 23/20 A2991 RMK A01 T02260199  RH  085%=      5-min Rain = 0
KSC1 250900Z 13012KT 23/20 A2991 RMK A01 T02260199  RH  085%=      5-min Rain = 0
KSC1 250901Z 13010KT 23/20 A2991 RMK A01 T02260199  RH  085%=      5-min Rain = 0
KSC1 250902Z 13012KT 23/20 A2991 RMK A01 T02260200  RH  085%=      5-min Rain = 0
KSC1 250903Z 13010KT 23/20 A2991 RMK A01 T02260200  RH  085%=      5-min Rain = 0
KSC1 250904Z 13012KT 23/20 A2991 RMK A01 T02260200  RH  085%=      5-min Rain = 0
KSC1 250905Z 12013KT 23/20 A2991 RMK A01 T02260200  RH  085%=      5-min Rain = 0
KSC1 250906Z 13010KT 23/20 A2991 RMK A01 T02270200  RH  085%=      5-min Rain = 0
KSC1 250907Z 13012KT 23/20 A2991 RMK A01 T02270200  RH  085%=      5-min Rain = 0
KSC1 250908Z 13011KT 23/20 A2991 RMK A01 T02270200  RH  085%=      5-min Rain = 0
KSC1 250909Z 13010KT 23/20 A2991 RMK A01 T02270200  RH  085%=      5-min Rain = 0
KSC1 250910Z 12011KT 23/20 A2991 RMK A01 T02270200  RH  085%=      5-min Rain = 0
KSC1 250911Z 13012G18KT 23/20 A2991 RMK A01 T02270200  RH  085%=      5-min Rain = 0
KSC1 250912Z 13013KT 23/20 A2991 RMK A01 T02280200  RH  084%=      5-min Rain = 0
KSC1 250913Z 13011KT 23/20 A2991 RMK A01 T02280200  RH  084%=      5-min Rain = 0
KSC1 250914Z 12011KT 23/20 A2991 RMK A01 T02280200  RH  084%=      5-min Rain = 0
KSC1 250915Z 13010KT 23/20 A2991 RMK A01 T02280200  RH  084%=      5-min Rain = 0
KSC1 250916Z 13009KT 23/20 A2992 RMK A01 T02280200  RH  084%=      5-min Rain = 0
KSC1 250917Z 14008KT 23/20 A2991 RMK A01 T02290200  RH  084%=      5-min Rain = 0
KSC1 250918Z 13011KT 23/20 A2992 RMK A01 T02290200  RH  084%=      5-min Rain = 0
KSC1 250919Z 13012KT 23/20 A2992 RMK A01 T02290201  RH  084%=      5-min Rain = 0
KSC1 250920Z 13011KT 23/20 A2992 RMK A01 T02290200  RH  084%=      5-min Rain = 0
KSC1 250921Z 14011G16KT 23/20 A2992 RMK A01 T02290200  RH  084%=      5-min Rain = 0
KSC1 250922Z 13010KT 23/20 A2992 RMK A01 T02290200  RH  084%=      5-min Rain = 0
KSC1 250923Z 13010KT 23/20 A2992 RMK A01 T02290200  RH  084%=      5-min Rain = 0
KSC1 250924Z 13010KT 23/20 A2992 RMK A01 T02290200  RH  084%=      5-min Rain = 0
KSC1 250925Z 14012KT 23/20 A2992 RMK A01 T02290200  RH  084%=      5-min Rain = 0
KSC1 250926Z 13011KT 23/20 A2992 RMK A01 T02290200  RH  084%=      5-min Rain = 0
KSC1 250927Z 14010KT 23/20 A2992 RMK A01 T02300200  RH  083%=      5-min Rain = 0
KSC1 250928Z 14006KT 23/20 A2993 RMK A01 T02300200  RH  083%=      5-min Rain = 0
KSC1 250929Z 13009G15KT 23/20 A2993 RMK A01 T02300200  RH  084%=      5-min Rain = 0
KSC1 250930Z 13010KT 23/20 A2993 RMK A01 T02300200  RH  084%=      5-min Rain = 0
KSC1 250931Z 13008KT 23/20 A2993 RMK A01 T02300200  RH  084%=      5-min Rain = 0
KSC1 250932Z 13007KT 23/20 A2993 RMK A01 T02300201  RH  084%=      5-min Rain = 0
KSC1 250933Z 13007KT 23/20 A2993 RMK A01 T02290201  RH  084%=      5-min Rain = 0
KSC1 250934Z 13007KT 23/20 A2993 RMK A01 T02290202  RH  084%=      5-min Rain = 0
KSC1 250935Z 13008KT 23/20 A2993 RMK A01 T02290201  RH  085%=      5-min Rain = 0
KSC1 250936Z 12007KT 23/20 A2993 RMK A01 T02290202  RH  085%=      5-min Rain = 0
KSC1 250937Z 11009KT 23/20 A2993 RMK A01 T02290202  RH  085%=      5-min Rain = 0
KSC1 250938Z 13010G15KT 23/20 A2993 RMK A01 T02290202  RH  085%=      5-min Rain = 0
KSC1 250939Z 12006KT 23/20 A2993 RMK A01 T02280201  RH  085%=      5-min Rain = 0
KSC1 250940Z 12008KT 23/20 A2993 RMK A01 T02280202  RH  085%=      5-min Rain = 0
KSC1 250941Z 13009KT 23/20 A2993 RMK A01 T02280202  RH  085%=      5-min Rain = 0
KSC1 250942Z 13008KT 23/20 A2993 RMK A01 T02280202  RH  085%=      5-min Rain = 0
KSC1 250943Z 12011KT 23/20 A2993 RMK A01 T02280202  RH  085%=      5-min Rain = 0
KSC1 250944Z 13008KT 23/20 A2993 RMK A01 T02280202  RH  085%=      5-min Rain = 0
KSC1 250945Z 12010KT 23/20 A2993 RMK A01 T02280202  RH  085%=      5-min Rain = 0
KSC1 250946Z 13012KT 23/20 A2993 RMK A01 T02280202  RH  085%=      5-min Rain = 0
KSC1 250947Z 12009KT 23/20 A2993 RMK A01 T02290202  RH  085%=      5-min Rain = 0
KSC1 250948Z 12008KT 23/20 A2993 RMK A01 T02290202  RH  085%=      5-min Rain = 0
KSC1 250949Z 12008KT 23/20 A2993 RMK A01 T02290202  RH  085%=      5-min Rain = 0
KSC1 250950Z 13010KT 23/20 A2993 RMK A01 T02290202  RH  085%=      5-min Rain = 0
KSC1 250951Z 13008KT 23/20 A2993 RMK A01 T02290202  RH  085%=      5-min Rain = 0
KSC1 250952Z 12005KT 23/20 A2993 RMK A01 T02290202  RH  085%=      5-min Rain = 0
KSC1 250953Z 12008KT 23/20 A2993 RMK A01 T02290203  RH  085%=      5-min Rain = 0
KSC1 250954Z 12007KT 23/20 A2993 RMK A01 T02280202  RH  085%=      5-min Rain = 0
KSC1 250955Z 11008KT 23/20 A2993 RMK A01 T02280203  RH  085%=      5-min Rain = 0
KSC1 250956Z 11006KT 23/20 A2994 RMK A01 T02280203  RH  085%=      5-min Rain = 0
KSC1 250957Z 10006KT 23/20 A2994 RMK A01 T02280203  RH  086%=      5-min Rain = 0
KSC1 250958Z 10007KT 23/20 A2994 RMK A01 T02270203  RH  086%=      5-min Rain = 0
KSC1 250959Z 10008KT 23/20 A2994 RMK A01 T02270203  RH  086%=      5-min Rain = 0
KSC1 251000Z 11009KT 23/20 A2994 RMK A01 T02270203  RH  087%=      5-min Rain = 0
KSC1 251001Z 11008KT 23/20 A2994 RMK A01 T02260203  RH  087%=      5-min Rain = 0
KSC1 251002Z 11008KT 23/20 A2994 RMK A01 T02260203  RH  087%=      5-min Rain = 0
KSC1 251003Z 11006KT 23/20 A2994 RMK A01 T02260204  RH  087%=      5-min Rain = 0
KSC1 251004Z 11009KT 23/21 A2994 RMK A01 T02260205  RH  088%=      5-min Rain = 0
KSC1 251005Z 11007KT 23/20 A2994 RMK A01 T02260204  RH  088%=      5-min Rain = 0
KSC1 251006Z 10008KT 23/20 A2994 RMK A01 T02260204  RH  088%=      5-min Rain = 0
KSC1 251007Z 10006KT 23/20 A2994 RMK A01 T02250204  RH  088%=      5-min Rain = 0
KSC1 251008Z 10007KT 23/21 A2994 RMK A01 T02260205  RH  088%=      5-min Rain = 0
KSC1 251009Z 10008KT 23/21 A2994 RMK A01 T02250205  RH  088%=      5-min Rain = 0
KSC1 251010Z 10007KT 23/21 A2994 RMK A01 T02250205  RH  088%=      5-min Rain = 0
KSC1 251011Z 11008KT 23/21 A2994 RMK A01 T02250205  RH  089%=      5-min Rain = 0
KSC1 251012Z 10006KT 23/21 A2994 RMK A01 T02250206  RH  089%=      5-min Rain = 0
KSC1 251013Z 11007KT 22/21 A2994 RMK A01 T02240207  RH  090%=      5-min Rain = 0
KSC1 251014Z 11009KT 22/21 A2994 RMK A01 T02240206  RH  090%=      5-min Rain = 0
KSC1 251015Z 11007KT 22/21 A2994 RMK A01 T02240206  RH  090%=      5-min Rain = 0
KSC1 251016Z 11007KT 22/21 A2994 RMK A01 T02240207  RH  090%=      5-min Rain = 0
KSC1 251017Z 11006KT 22/21 A2994 RMK A01 T02230207  RH  091%=      5-min Rain = 0
KSC1 251018Z 11008KT 22/21 A2994 RMK A01 T02230207  RH  091%=      5-min Rain = 0
KSC1 251019Z 11009KT 22/21 A2994 RMK A01 T02230207  RH  091%=      5-min Rain = 0
KSC1 251020Z 11009KT 22/21 A2994 RMK A01 T02230208  RH  091%=      5-min Rain = 0
KSC1 251021Z 10008KT 22/21 A2994 RMK A01 T02230208  RH  091%=      5-min Rain = 0
KSC1 251022Z 11008KT 22/21 A2994 RMK A01 T02220209  RH  092%=      5-min Rain = 0
KSC1 251023Z 11008KT 22/21 A2994 RMK A01 T02220209  RH  093%=      5-min Rain = 0
KSC1 251024Z 11009KT 22/21 A2995 RMK A01 T02210210  RH  093%=      5-min Rain = 0
KSC1 251025Z 11007KT 22/21 A2995 RMK A01 T02210210  RH  094%=      5-min Rain = 0
KSC1 251026Z 11008KT 22/21 A2995 RMK A01 T02200211  RH  095%=      5-min Rain = 0
KSC1 251027Z 11010KT 22/21 A2995 RMK A01 T02200211  RH  095%=      5-min Rain = 0
KSC1 251028Z 12011KT 22/21 A2995 RMK A01 T02190211  RH  095%=      5-min Rain = 0
KSC1 251029Z 11008KT 22/21 A2995 RMK A01 T02190211  RH  095%=      5-min Rain = 0
KSC1 251030Z 10009KT 22/21 A2995 RMK A01 T02190212  RH  096%=      5-min Rain = 0
KSC1 251031Z 11011KT 22/21 A2995 RMK A01 T02190213  RH  097%=      5-min Rain = 0
KSC1 251032Z 11010KT 22/21 A2995 RMK A01 T02170213  RH  097%=      5-min Rain = 0
KSC1 251033Z 11006KT 22/21 A2995 RMK A01 T02170214  RH  098%=      5-min Rain = 0
KSC1 251034Z 11008KT 22/22 A2995 RMK A01 T02170215  RH  099%=      5-min Rain = 0
KSC1 251035Z 11008KT 22/22 A2995 RMK A01 T02160215  RH  099%=      5-min Rain = 0
KSC1 251036Z 11007KT 22/22 A2995 RMK A01 T02160216  RH  100%=      5-min Rain = 0
KSC1 251037Z 11008KT 22/22 A2995 RMK A01 T02150215  RH  100%=      5-min Rain = 0
KSC1 251038Z 10008KT 22/22 A2995 RMK A01 T02150215  RH  100%=      5-min Rain = 0
KSC1 251039Z 11007KT 22/22 A2995 RMK A01 T02150215  RH  100%=      5-min Rain = 0
KSC1 251040Z 11008KT 21/22 A2995 RMK A01 T02140215  RH  100%=      5-min Rain = 0
KSC1 251041Z 11008KT 21/22 A2995 RMK A01 T02140215  RH  100%=      5-min Rain = 0
KSC1 251042Z 11008KT 21/21 A2995 RMK A01 T02140214  RH  100%=      5-min Rain = 0
KSC1 251043Z 10006KT 21/21 A2995 RMK A01 T02140214  RH  100%=      5-min Rain = 0
KSC1 251044Z 11008KT 21/21 A2995 RMK A01 T02140214  RH  100%=      5-min Rain = 0
KSC1 251045Z 10008KT 21/21 A2995 RMK A01 T02140214  RH  100%=      5-min Rain = 0
KSC1 251046Z 10006KT 21/21 A2995 RMK A01 T02130213  RH  100%=      5-min Rain = 0
KSC1 251047Z 10008KT 21/21 A2995 RMK A01 T02130213  RH  100%=      5-min Rain = 0
KSC1 251048Z 10007KT 21/21 A2995 RMK A01 T02130213  RH  100%=      5-min Rain = 0
KSC1 251049Z 11008KT 21/21 A2995 RMK A01 T02120212  RH  100%=      5-min Rain = 0
KSC1 251050Z 10007KT 21/21 A2995 RMK A01 T02120212  RH  100%=      5-min Rain = 0
KSC1 251051Z 10006KT 21/21 A2995 RMK A01 T02120212  RH  100%=      5-min Rain = 0
KSC1 251052Z 10006KT 21/21 A2995 RMK A01 T02120212  RH  100%=      5-min Rain = 0
KSC1 251053Z 10007KT 21/21 A2995 RMK A01 T02120212  RH  100%=      5-min Rain = 0
KSC1 251054Z 09006KT 21/21 A2995 RMK A01 T02110212  RH  100%=      5-min Rain = 0
KSC1 251055Z 10005KT 21/21 A2995 RMK A01 T02110211  RH  100%=      5-min Rain = 0
KSC1 251056Z 10005KT 21/21 A2995 RMK A01 T02110211  RH  100%=      5-min Rain = 0
KSC1 251057Z 10007KT 21/21 A2995 RMK A01 T02110211  RH  100%=      5-min Rain = 0
KSC1 251058Z 09007KT 21/21 A2996 RMK A01 T02110211  RH  100%=      5-min Rain = 0
KSC1 251059Z 10006KT 21/21 A2996 RMK A01 T02110211  RH  100%=      5-min Rain = 0.01
KSC1 251100Z 10006KT 21/21 A2996 RMK A01 T02100210  RH  100%=      5-min Rain = 0
KSC1 251101Z 09006KT 21/21 A2996 RMK A01 T02100210  RH  100%=      5-min Rain = 0
KSC1 251102Z 09005KT 21/21 A2996 RMK A01 T02100210  RH  100%=      5-min Rain = 0
KSC1 251103Z 09005KT 21/21 A2996 RMK A01 T02100211  RH  100%=      5-min Rain = 0
KSC1 251104Z 09005KT 21/21 A2996 RMK A01 T02100210  RH  100%=      5-min Rain = 0
KSC1 251105Z 10005KT 21/21 A2996 RMK A01 T02100210  RH  100%=      5-min Rain = 0
KSC1 251106Z 09006KT 21/21 A2996 RMK A01 T02100210  RH  100%=      5-min Rain = 0
KSC1 251107Z 10006KT 21/21 A2996 RMK A01 T02100210  RH  100%=      5-min Rain = 0
KSC1 251108Z 10005KT 21/21 A2996 RMK A01 T02100210  RH  100%=      5-min Rain = 0
KSC1 251109Z 10006KT 21/21 A2996 RMK A01 T02100210  RH  100%=      5-min Rain = 0
KSC1 251110Z 10006KT 21/21 A2996 RMK A01 T02100210  RH  100%=      5-min Rain = 0
KSC1 251111Z 09007KT 21/21 A2996 RMK A01 T02100210  RH  100%=      5-min Rain = 0
KSC1 251112Z 10007KT 21/21 A2996 RMK A01 T02090209  RH  100%=      5-min Rain = 0
KSC1 251113Z 10006KT 21/21 A2996 RMK A01 T02090209  RH  100%=      5-min Rain = 0
KSC1 251114Z 10007KT 21/21 A2997 RMK A01 T02100210  RH  100%=      5-min Rain = 0
KSC1 251115Z 10006KT 21/21 A2997 RMK A01 T02100210  RH  100%=      5-min Rain = 0
KSC1 251116Z 10006KT 21/21 A2997 RMK A01 T02090210  RH  100%=      5-min Rain = 0
KSC1 251117Z 10006KT 21/21 A2997 RMK A01 T02090210  RH  100%=      5-min Rain = 0
KSC1 251118Z 09006KT 21/21 A2997 RMK A01 T02090209  RH  100%=      5-min Rain = 0
KSC1 251119Z 09006KT 21/21 A2997 RMK A01 T02090209  RH  100%=      5-min Rain = 0.01
KSC1 251120Z 09006KT 21/21 A2997 RMK A01 T02090209  RH  100%=      5-min Rain = 0
KSC1 251121Z 08007KT 21/21 A2997 RMK A01 T02090209  RH  100%=      5-min Rain = 0
KSC1 251122Z 09007KT 21/21 A2997 RMK A01 T02090209  RH  100%=      5-min Rain = 0
KSC1 251123Z 09007KT 21/21 A2997 RMK A01 T02090209  RH  100%=      5-min Rain = 0
KSC1 251124Z 09006KT 21/21 A2997 RMK A01 T02090209  RH  100%=      5-min Rain = 0
KSC1 251125Z 09006KT 21/21 A2997 RMK A01 T02090209  RH  100%=      5-min Rain = 0
KSC1 251126Z 09006KT 21/21 A2997 RMK A01 T02080209  RH  100%=      5-min Rain = 0
KSC1 251127Z 09007KT 21/21 A2997 RMK A01 T02080209  RH  100%=      5-min Rain = 0
KSC1 251128Z 10008KT 21/21 A2997 RMK A01 T02080209  RH  100%=      5-min Rain = 0
KSC1 251129Z 10007KT 21/21 A2997 RMK A01 T02080209  RH  100%=      5-min Rain = 0
KSC1 251130Z 09007KT 21/21 A2997 RMK A01 T02090209  RH  100%=      5-min Rain = 0
KSC1 251131Z 09006KT 21/21 A2997 RMK A01 T02090209  RH  100%=      5-min Rain = 0
KSC1 251132Z 09007KT 21/21 A2997 RMK A01 T02080209  RH  100%=      5-min Rain = 0
KSC1 251133Z 10005KT 21/21 A2997 RMK A01 T02080209  RH  100%=      5-min Rain = 0
KSC1 251134Z 10005KT 21/21 A2997 RMK A01 T02080209  RH  100%=      5-min Rain = 0
KSC1 251135Z 10005KT 21/21 A2997 RMK A01 T02090209  RH  100%=      5-min Rain = 0
KSC1 251136Z 09005KT 21/21 A2997 RMK A01 T02090209  RH  100%=      5-min Rain = 0
KSC1 251137Z 09005KT 21/21 A2997 RMK A01 T02080208  RH  100%=      5-min Rain = 0
KSC1 251138Z 10006KT 21/21 A2997 RMK A01 T02080208  RH  100%=      5-min Rain = 0
KSC1 251139Z 09005KT 21/21 A2997 RMK A01 T02080208  RH  100%=      5-min Rain = 0
KSC1 251140Z 09005KT 21/21 A2997 RMK A01 T02080208  RH  100%=      5-min Rain = 0
KSC1 251141Z 09005KT 21/21 A2997 RMK A01 T02080208  RH  100%=      5-min Rain = 0
KSC1 251142Z 10005KT 21/21 A2997 RMK A01 T02080208  RH  100%=      5-min Rain = 0
KSC1 251143Z 09004KT 21/21 A2997 RMK A01 T02080208  RH  100%=      5-min Rain = 0.01
KSC1 251144Z 09004KT 21/21 A2997 RMK A01 T02080208  RH  100%=      5-min Rain = 0
KSC1 251145Z 09006KT 21/21 A2997 RMK A01 T02080208  RH  100%=      5-min Rain = 0
KSC1 251146Z 09005KT 21/21 A2997 RMK A01 T02080208  RH  100%=      5-min Rain = 0
KSC1 251147Z 09005KT 21/21 A2998 RMK A01 T02080208  RH  100%=      5-min Rain = 0
KSC1 251148Z 09005KT 21/21 A2998 RMK A01 T02080208  RH  100%=      5-min Rain = 0
KSC1 251149Z 09005KT 21/21 A2998 RMK A01 T02080208  RH  100%=      5-min Rain = 0
KSC1 251150Z 09005KT 21/21 A2998 RMK A01 T02070208  RH  100%=      5-min Rain = 0
KSC1 251151Z 10004KT 21/21 A2998 RMK A01 T02080208  RH  100%=      5-min Rain = 0
KSC1 251152Z 10005KT 21/21 A2998 RMK A01 T02080208  RH  100%=      5-min Rain = 0
KSC1 251153Z 10005KT 21/21 A2998 RMK A01 T02080208  RH  100%=      5-min Rain = 0
KSC1 251154Z 10004KT 21/21 A2998 RMK A01 T02080208  RH  100%=      5-min Rain = 0
KSC1 251155Z 10005KT 21/21 A2998 RMK A01 T02080208  RH  100%=      5-min Rain = 0
KSC1 251156Z 10005KT 21/21 A2998 RMK A01 T02080208  RH  100%=      5-min Rain = 0
KSC1 251157Z 10005KT 21/21 A2998 RMK A01 T02070208  RH  100%=      5-min Rain = 0
KSC1 251158Z 09005KT 21/21 A2998 RMK A01 T02080208  RH  100%=      5-min Rain = 0
KSC1 251159Z 09005KT 21/21 A2998 RMK A01 T02070207  RH  100%=      5-min Rain = 0
KSC1 251200Z 09005KT 21/21 A2998 RMK A01 T02080208  RH  100%=      5-min Rain = 0
KSC1 251201Z 09005KT 21/21 A2998 RMK A01 T02080208  RH  100%=      5-min Rain = 0
KSC1 251202Z 09005KT 21/21 A2998 RMK A01 T02080208  RH  100%=      5-min Rain = 0
KSC1 251203Z 09005KT 21/21 A2998 RMK A01 T02080208  RH  100%=      5-min Rain = 0
KSC1 251204Z 09005KT 21/21 A2998 RMK A01 T02080208  RH  100%=      5-min Rain = 0
KSC1 251205Z 09006KT 21/21 A2999 RMK A01 T02080208  RH  100%=      5-min Rain = 0.01
KSC1 251206Z 09005KT 21/21 A2999 RMK A01 T02080208  RH  100%=      5-min Rain = 0
KSC1 251207Z 09006KT 21/21 A2999 RMK A01 T02070208  RH  100%=      5-min Rain = 0
KSC1 251208Z 09006KT 21/21 A2999 RMK A01 T02070208  RH  100%=      5-min Rain = 0
KSC1 251209Z 08006KT 21/21 A2999 RMK A01 T02080208  RH  100%=      5-min Rain = 0
KSC1 251210Z 09007KT 21/21 A2999 RMK A01 T02070208  RH  100%=      5-min Rain = 0
KSC1 251211Z 10006KT 21/21 A2999 RMK A01 T02070208  RH  100%=      5-min Rain = 0
KSC1 251212Z 09005KT 21/21 A2999 RMK A01 T02080208  RH  100%=      5-min Rain = 0
KSC1 251213Z 08006KT 21/21 A2999 RMK A01 T02070208  RH  100%=      5-min Rain = 0
KSC1 251214Z 08005KT 21/21 A2999 RMK A01 T02080208  RH  100%=      5-min Rain = 0
KSC1 251215Z 09006KT 21/21 A2999 RMK A01 T02070208  RH  100%=      5-min Rain = 0
KSC1 251216Z 09006KT 21/21 A2999 RMK A01 T02070207  RH  100%=      5-min Rain = 0
KSC1 251217Z 08004KT 21/21 A2999 RMK A01 T02070207  RH  100%=      5-min Rain = 0
KSC1 251218Z 09005KT 21/21 A2999 RMK A01 T02070207  RH  100%=      5-min Rain = 0
KSC1 251219Z 10006KT 21/21 A2999 RMK A01 T02070207  RH  100%=      5-min Rain = 0
KSC1 251220Z 09005KT 21/21 A2999 RMK A01 T02070207  RH  100%=      5-min Rain = 0
KSC1 251221Z 09006KT 21/21 A2999 RMK A01 T02070207  RH  100%=      5-min Rain = 0
KSC1 251222Z 09006KT 21/21 A2999 RMK A01 T02070207  RH  100%=      5-min Rain = 0
KSC1 251223Z 10008KT 21/21 A2999 RMK A01 T02070207  RH  100%=      5-min Rain = 0
KSC1 251224Z 10006KT 21/21 A2999 RMK A01 T02070207  RH  100%=      5-min Rain = 0
KSC1 251225Z 09005KT 21/21 A2999 RMK A01 T02070207  RH  100%=      5-min Rain = 0
KSC1 251226Z 09006KT 21/21 A2999 RMK A01 T02070207  RH  100%=      5-min Rain = 0
KSC1 251227Z 09006KT 21/21 A2999 RMK A01 T02070207  RH  100%=      5-min Rain = 0
KSC1 251228Z 10007KT 21/21 A2999 RMK A01 T02070207  RH  100%=      5-min Rain = 0
KSC1 251229Z 09005KT 21/21 A2999 RMK A01 T02070207  RH  100%=      5-min Rain = 0
KSC1 251230Z 10007KT 21/21 A2999 RMK A01 T02070207  RH  100%=      5-min Rain = 0
KSC1 251231Z 10007KT 21/21 A2999 RMK A01 T02070207  RH  100%=      5-min Rain = 0
KSC1 251232Z 10005KT 21/21 A2999 RMK A01 T02070207  RH  100%=      5-min Rain = 0
KSC1 251233Z 10006G11KT 21/21 A2999 RMK A01 T02080208  RH  100%=      5-min Rain = 0
KSC1 251234Z 11009KT 21/21 A2999 RMK A01 T02080208  RH  100%=      5-min Rain = 0
KSC1 251235Z 10007KT 21/21 A30 RMK A01 T02080208  RH  100%=      5-min Rain = 0
KSC1 251236Z 10007KT 21/21 A30 RMK A01 T02080208  RH  100%=      5-min Rain = 0.01
KSC1 251237Z 11008KT 21/21 A30 RMK A01 T02080208  RH  100%=      5-min Rain = 0
KSC1 251238Z 10007KT 21/21 A30 RMK A01 T02080208  RH  100%=      5-min Rain = 0
KSC1 251239Z 10007KT 21/21 A30 RMK A01 T02070208  RH  100%=      5-min Rain = 0
KSC1 251240Z 11006KT 21/21 A30 RMK A01 T02070208  RH  100%=      5-min Rain = 0
KSC1 251241Z 10006KT 21/21 A30 RMK A01 T02070208  RH  100%=      5-min Rain = 0
KSC1 251242Z 11004KT 21/21 A30 RMK A01 T02080208  RH  100%=      5-min Rain = 0
KSC1 251243Z 11006KT 21/21 A30 RMK A01 T02080208  RH  100%=      5-min Rain = 0
KSC1 251244Z 11006KT 21/21 A30 RMK A01 T02080208  RH  100%=      5-min Rain = 0
KSC1 251245Z 10007KT 21/21 A30 RMK A01 T02080208  RH  100%=      5-min Rain = 0
KSC1 251246Z 10007KT 21/21 A30 RMK A01 T02070208  RH  100%=      5-min Rain = 0
KSC1 251247Z 11006KT 21/21 A30 RMK A01 T02080208  RH  100%=      5-min Rain = 0
KSC1 251248Z 10005KT 21/21 A30 RMK A01 T02070208  RH  100%=      5-min Rain = 0
KSC1 251249Z 12007KT 21/21 A30 RMK A01 T02080208  RH  100%=      5-min Rain = 0
KSC1 251250Z 11005KT 21/21 A30 RMK A01 T02080208  RH  100%=      5-min Rain = 0
KSC1 251251Z 11007KT 21/21 A30 RMK A01 T02080208  RH  100%=      5-min Rain = 0
KSC1 251252Z 10008KT 21/21 A30 RMK A01 T02080208  RH  100%=      5-min Rain = 0
KSC1 251253Z 11007KT 21/21 A30 RMK A01 T02080208  RH  100%=      5-min Rain = 0
KSC1 251254Z 11007KT 21/21 A3001 RMK A01 T02080208  RH  100%=      5-min Rain = 0
KSC1 251255Z 11006KT 21/21 A3001 RMK A01 T02070208  RH  100%=      5-min Rain = 0
KSC1 251256Z 10007KT 21/21 A3001 RMK A01 T02080208  RH  100%=      5-min Rain = 0
KSC1 251257Z 10006KT 21/21 A3001 RMK A01 T02070208  RH  100%=      5-min Rain = 0
KSC1 251258Z 11006KT 21/21 A3001 RMK A01 T02080208  RH  100%=      5-min Rain = 0
KSC1 251259Z 10007KT 21/21 A3001 RMK A01 T02080208  RH  100%=      5-min Rain = 0
KSC1 251300Z 12007KT 21/21 A3001 RMK A01 T02080208  RH  100%=      5-min Rain = 0
KSC1 251301Z 11006KT 21/21 A3001 RMK A01 T02080208  RH  100%=      5-min Rain = 0
KSC1 251302Z 11006KT 21/21 A3001 RMK A01 T02070208  RH  100%=      5-min Rain = 0
KSC1 251303Z 11007KT 21/21 A3001 RMK A01 T02070208  RH  100%=      5-min Rain = 0
KSC1 251304Z 11006KT 21/21 A3001 RMK A01 T02080208  RH  100%=      5-min Rain = 0.01
KSC1 251305Z 11006KT 21/21 A3001 RMK A01 T02080208  RH  100%=      5-min Rain = 0
KSC1 251306Z 11006KT 21/21 A3001 RMK A01 T02080208  RH  100%=      5-min Rain = 0
KSC1 251307Z 11005KT 21/21 A3001 RMK A01 T02080208  RH  100%=      5-min Rain = 0
KSC1 251308Z 11005KT 21/21 A3001 RMK A01 T02080208  RH  100%=      5-min Rain = 0
KSC1 251309Z 10006KT 21/21 A3001 RMK A01 T02080208  RH  100%=      5-min Rain = 0
KSC1 251310Z 10007KT 21/21 A3001 RMK A01 T02080208  RH  100%=      5-min Rain = 0
KSC1 251311Z 09005KT 21/21 A3001 RMK A01 T02080208  RH  100%=      5-min Rain = 0
KSC1 251312Z 10006KT 21/21 A3001 RMK A01 T02080208  RH  100%=      5-min Rain = 0
KSC1 251313Z 09007KT 21/21 A3001 RMK A01 T02080208  RH  100%=      5-min Rain = 0
KSC1 251314Z 08006KT 21/21 A3001 RMK A01 T02080208  RH  100%=      5-min Rain = 0
KSC1 251315Z 09007KT 21/21 A3001 RMK A01 T02080208  RH  100%=      5-min Rain = 0
KSC1 251316Z 10007KT 21/21 A3001 RMK A01 T02080208  RH  100%=      5-min Rain = 0
KSC1 251317Z 10007KT 21/21 A3001 RMK A01 T02080208  RH  100%=      5-min Rain = 0
KSC1 251318Z 09006KT 21/21 A3001 RMK A01 T02080208  RH  100%=      5-min Rain = 0
KSC1 251319Z 10006KT 21/21 A3001 RMK A01 T02070208  RH  100%=      5-min Rain = 0
KSC1 251320Z 10007KT 21/21 A3001 RMK A01 T02080208  RH  100%=      5-min Rain = 0
KSC1 251321Z 10007KT 21/21 A3001 RMK A01 T02080208  RH  100%=      5-min Rain = 0
KSC1 251322Z 10006KT 21/21 A3001 RMK A01 T02080208  RH  100%=      5-min Rain = 0
KSC1 251323Z 10006KT 21/21 A3001 RMK A01 T02070208  RH  100%=      5-min Rain = 0
KSC1 251324Z 10007KT 21/21 A3002 RMK A01 T02080208  RH  100%=      5-min Rain = 0
KSC1 251325Z 11007KT 21/21 A3002 RMK A01 T02080208  RH  100%=      5-min Rain = 0
KSC1 251326Z 10007KT 21/21 A3002 RMK A01 T02080208  RH  100%=      5-min Rain = 0
KSC1 251327Z 10005KT 21/21 A3002 RMK A01 T02080208  RH  100%=      5-min Rain = 0
KSC1 251328Z 10007KT 21/21 A3002 RMK A01 T02080208  RH  100%=      5-min Rain = 0
KSC1 251329Z 11008KT 21/21 A3002 RMK A01 T02080208  RH  100%=      5-min Rain = 0
KSC1 251330Z 10006KT 21/21 A3002 RMK A01 T02080208  RH  100%=      5-min Rain = 0
KSC1 251331Z 11006KT 21/21 A3002 RMK A01 T02080208  RH  100%=      5-min Rain = 0
KSC1 251332Z 10006KT 21/21 A3001 RMK A01 T02080208  RH  100%=      5-min Rain = 0
KSC1 251333Z 10006KT 21/21 A3002 RMK A01 T02080208  RH  100%=      5-min Rain = 0
KSC1 251334Z 10006KT 21/21 A3002 RMK A01 T02080208  RH  100%=      5-min Rain = 0
KSC1 251335Z 10006KT 21/21 A3002 RMK A01 T02080208  RH  100%=      5-min Rain = 0
KSC1 251336Z 10009KT 21/21 A3002 RMK A01 T02080208  RH  100%=      5-min Rain = 0
KSC1 251337Z 11007KT 21/21 A3002 RMK A01 T02080208  RH  100%=      5-min Rain = 0.01
KSC1 251338Z 10006KT 21/21 A3002 RMK A01 T02080208  RH  100%=      5-min Rain = 0
KSC1 251339Z 09007KT 21/21 A3002 RMK A01 T02080209  RH  100%=      5-min Rain = 0
KSC1 251340Z 10008KT 21/21 A3002 RMK A01 T02080209  RH  100%=      5-min Rain = 0
KSC1 251341Z 10007KT 21/21 A3002 RMK A01 T02080209  RH  100%=      5-min Rain = 0
KSC1 251342Z 10008KT 21/21 A3002 RMK A01 T02090209  RH  100%=      5-min Rain = 0
KSC1 251343Z 10007KT 21/21 A3002 RMK A01 T02080209  RH  100%=      5-min Rain = 0
KSC1 251344Z 10008KT 21/21 A3002 RMK A01 T02090209  RH  100%=      5-min Rain = 0
KSC1 251345Z 10006KT 21/21 A3002 RMK A01 T02090209  RH  100%=      5-min Rain = 0
KSC1 251346Z 11006KT 21/21 A3002 RMK A01 T02090209  RH  100%=      5-min Rain = 0
KSC1 251347Z 10007KT 21/21 A3002 RMK A01 T02090209  RH  100%=      5-min Rain = 0
KSC1 251348Z 10007KT 21/21 A3002 RMK A01 T02090209  RH  100%=      5-min Rain = 0
KSC1 251349Z 09007KT 21/21 A3002 RMK A01 T02090209  RH  100%=      5-min Rain = 0
KSC1 251350Z 10008KT 21/21 A3002 RMK A01 T02090209  RH  100%=      5-min Rain = 0
KSC1 251351Z 10009KT 21/21 A3002 RMK A01 T02090209  RH  100%=      5-min Rain = 0
KSC1 251352Z 10008KT 21/21 A3002 RMK A01 T02090209  RH  100%=      5-min Rain = 0
KSC1 251353Z 10008KT 21/21 A3002 RMK A01 T02090209  RH  100%=      5-min Rain = 0
KSC1 251354Z 09008KT 21/21 A3002 RMK A01 T02090209  RH  100%=      5-min Rain = 0
KSC1 251355Z 10008KT 21/21 A3002 RMK A01 T02090209  RH  100%=      5-min Rain = 0
KSC1 251356Z 10007KT 21/21 A3002 RMK A01 T02090209  RH  100%=      5-min Rain = 0
KSC1 251357Z 10006KT 21/21 A3002 RMK A01 T02090209  RH  100%=      5-min Rain = 0
KSC1 251358Z 10009KT 21/21 A3002 RMK A01 T02090209  RH  100%=      5-min Rain = 0
KSC1 251359Z 11007KT 21/21 A3002 RMK A01 T02090209  RH  100%=      5-min Rain = 0
KSC1 251400Z 10007KT 21/21 A3002 RMK A01 T02090209  RH  100%=      5-min Rain = 0
KSC1 251401Z 10008KT 21/21 A3002 RMK A01 T02090209  RH  100%=      5-min Rain = 0
KSC1 251402Z 10007KT 21/21 A3002 RMK A01 T02090209  RH  100%=      5-min Rain = 0
KSC1 251403Z 10007KT 21/21 A3002 RMK A01 T02090209  RH  100%=      5-min Rain = 0
KSC1 251404Z 10009KT 21/21 A3002 RMK A01 T02090209  RH  100%=      5-min Rain = 0
KSC1 251405Z 10007KT 21/21 A3002 RMK A01 T02090209  RH  100%=      5-min Rain = 0
KSC1 251406Z 10009KT 21/21 A3002 RMK A01 T02090209  RH  100%=      5-min Rain = 0
KSC1 251407Z 10008KT 21/21 A3002 RMK A01 T02090209  RH  100%=      5-min Rain = 0
KSC1 251408Z 10009KT 21/21 A3002 RMK A01 T02090209  RH  100%=      5-min Rain = 0
KSC1 251409Z 09007KT 21/21 A3002 RMK A01 T02090209  RH  100%=      5-min Rain = 0
KSC1 251410Z 10008KT 21/21 A3002 RMK A01 T02090209  RH  100%=      5-min Rain = 0
KSC1 251411Z 10008KT 21/21 A3002 RMK A01 T02090209  RH  100%=      5-min Rain = 0
KSC1 251412Z 10006KT 21/21 A3002 RMK A01 T02090209  RH  100%=      5-min Rain = 0
KSC1 251413Z 10008KT 21/21 A3002 RMK A01 T02090209  RH  100%=      5-min Rain = 0
KSC1 251414Z 10009KT 21/21 A3002 RMK A01 T02090210  RH  100%=      5-min Rain = 0
KSC1 251415Z 10008KT 21/21 A3002 RMK A01 T02090209  RH  100%=      5-min Rain = 0
KSC1 251416Z 10007KT 21/21 A3002 RMK A01 T02090210  RH  100%=      5-min Rain = 0
KSC1 251417Z 10006KT 21/21 A3002 RMK A01 T02090210  RH  100%=      5-min Rain = 0
KSC1 251418Z 10009KT 21/21 A3002 RMK A01 T02100210  RH  100%=      5-min Rain = 0
KSC1 251419Z 10007G12KT 21/21 A3002 RMK A01 T02100210  RH  100%=      5-min Rain = 0
KSC1 251420Z 10007KT 21/21 A3002 RMK A01 T02100210  RH  100%=      5-min Rain = 0
KSC1 251421Z 10007KT 21/21 A3002 RMK A01 T02100211  RH  100%=      5-min Rain = 0
KSC1 251422Z 10009KT 21/21 A3002 RMK A01 T02100210  RH  100%=      5-min Rain = 0
KSC1 251423Z 09008KT 21/21 A3002 RMK A01 T02100211  RH  100%=      5-min Rain = 0
KSC1 251424Z 10009KT 21/21 A3002 RMK A01 T02100210  RH  100%=      5-min Rain = 0
KSC1 251425Z 10009KT 21/21 A3002 RMK A01 T02100211  RH  100%=      5-min Rain = 0
KSC1 251426Z 10008KT 21/21 A3002 RMK A01 T02110211  RH  100%=      5-min Rain = 0
KSC1 251427Z 10008KT 21/21 A3002 RMK A01 T02110211  RH  100%=      5-min Rain = 0
KSC1 251428Z 10008KT 21/21 A3002 RMK A01 T02110211  RH  100%=      5-min Rain = 0
KSC1 251429Z 10008KT 21/21 A3002 RMK A01 T02110211  RH  100%=      5-min Rain = 0
KSC1 251430Z 10009KT 21/21 A3002 RMK A01 T02110211  RH  100%=      5-min Rain = 0
KSC1 251431Z 10011KT 21/21 A3002 RMK A01 T02110211  RH  100%=      5-min Rain = 0
KSC1 251432Z 10009KT 21/21 A3002 RMK A01 T02110211  RH  100%=      5-min Rain = 0
KSC1 251433Z 11010KT 21/21 A3002 RMK A01 T02110211  RH  100%=      5-min Rain = 0
KSC1 251434Z 10008KT 21/21 A3002 RMK A01 T02110211  RH  100%=      5-min Rain = 0
KSC1 251435Z 10008KT 21/21 A3002 RMK A01 T02120212  RH  100%=      5-min Rain = 0
KSC1 251436Z 11010KT 21/21 A3002 RMK A01 T02120212  RH  100%=      5-min Rain = 0
KSC1 251437Z 11008KT 21/21 A3002 RMK A01 T02120212  RH  100%=      5-min Rain = 0
KSC1 251438Z 11010G15KT 21/21 A3003 RMK A01 T02120212  RH  100%=      5-min Rain = 0
KSC1 251439Z 11010KT 21/21 A3003 RMK A01 T02120212  RH  100%=      5-min Rain = 0
KSC1 251440Z 11010KT 21/21 A3003 RMK A01 T02120212  RH  100%=      5-min Rain = 0
KSC1 251441Z 11009KT 21/21 A3003 RMK A01 T02120212  RH  100%=      5-min Rain = 0
KSC1 251442Z 11012KT 21/21 A3003 RMK A01 T02130213  RH  100%=      5-min Rain = 0
KSC1 251443Z 10011KT 21/21 A3003 RMK A01 T02130213  RH  100%=      5-min Rain = 0
KSC1 251444Z 10011KT 21/21 A3003 RMK A01 T02130213  RH  100%=      5-min Rain = 0
KSC1 251445Z 11010KT 21/21 A3003 RMK A01 T02130214  RH  100%=      5-min Rain = 0
KSC1 251446Z 11010KT 21/21 A3003 RMK A01 T02130214  RH  100%=      5-min Rain = 0
KSC1 251447Z 11010KT 21/21 A3003 RMK A01 T02140214  RH  100%=      5-min Rain = 0
KSC1 251448Z 11010KT 21/21 A3003 RMK A01 T02140214  RH  100%=      5-min Rain = 0
KSC1 251449Z 11010KT 22/22 A3003 RMK A01 T02150215  RH  100%=      5-min Rain = 0
KSC1 251450Z 11008KT 22/22 A3003 RMK A01 T02150215  RH  100%=      5-min Rain = 0
KSC1 251451Z 11011KT 22/22 A3003 RMK A01 T02150215  RH  100%=      5-min Rain = 0
KSC1 251452Z 11010KT 22/22 A3003 RMK A01 T02150215  RH  100%=      5-min Rain = 0
KSC1 251453Z 11009KT 22/22 A3003 RMK A01 T02150215  RH  100%=      5-min Rain = 0
KSC1 251454Z 11010KT 22/22 A3003 RMK A01 T02150216  RH  100%=      5-min Rain = 0
KSC1 251455Z 10010KT 22/22 A3003 RMK A01 T02150216  RH  100%=      5-min Rain = 0
KSC1 251456Z 11011KT 22/22 A3003 RMK A01 T02160216  RH  100%=      5-min Rain = 0
KSC1 251457Z 11012KT 22/22 A3003 RMK A01 T02160216  RH  100%=      5-min Rain = 0
KSC1 251458Z 11012KT 22/22 A3002 RMK A01 T02160216  RH  100%=      5-min Rain = 0
KSC1 251459Z 11010G15KT 22/22 A3002 RMK A01 T02160216  RH  100%=      5-min Rain = 0
KSC1 251500Z 11012KT 22/22 A3002 RMK A01 T02160216  RH  100%=      5-min Rain = 0
KSC1 251501Z 12011KT 22/22 A3002 RMK A01 T02160217  RH  100%=      5-min Rain = 0
KSC1 251502Z 11010KT 22/22 A3002 RMK A01 T02170217  RH  100%=      5-min Rain = 0
KSC1 251503Z 11010KT 22/22 A3002 RMK A01 T02170217  RH  100%=      5-min Rain = 0
KSC1 251504Z 12010KT 22/22 A3002 RMK A01 T02170217  RH  100%=      5-min Rain = 0
KSC1 251505Z 12008KT 22/22 A3002 RMK A01 T02180218  RH  100%=      5-min Rain = 0
KSC1 251506Z 11009KT 22/22 A3002 RMK A01 T02180218  RH  100%=      5-min Rain = 0
KSC1 251507Z 11013KT 22/22 A3002 RMK A01 T02190219  RH  100%=      5-min Rain = 0
KSC1 251508Z 12010KT 22/22 A3002 RMK A01 T02190219  RH  100%=      5-min Rain = 0
KSC1 251509Z 11012KT 22/22 A3002 RMK A01 T02190219  RH  100%=      5-min Rain = 0
KSC1 251510Z 11011KT 22/22 A3002 RMK A01 T02190219  RH  100%=      5-min Rain = 0
KSC1 251511Z 12009KT 22/22 A3002 RMK A01 T02190219  RH  100%=      5-min Rain = 0
KSC1 251512Z 11012G17KT 22/22 A3002 RMK A01 T02190219  RH  100%=      5-min Rain = 0
KSC1 251513Z 12011G16KT 22/22 A3002 RMK A01 T02190219  RH  100%=      5-min Rain = 0
KSC1 251514Z 11013KT 22/22 A3002 RMK A01 T02200220  RH  100%=      5-min Rain = 0
KSC1 251515Z 11012G18KT 22/22 A3002 RMK A01 T02200220  RH  100%=      5-min Rain = 0
KSC1 251516Z 11013KT 22/22 A3002 RMK A01 T02200220  RH  100%=      5-min Rain = 0
KSC1 251517Z 11012KT 22/22 A3002 RMK A01 T02200220  RH  100%=      5-min Rain = 0
KSC1 251518Z 11011KT 22/22 A3002 RMK A01 T02200220  RH  100%=      5-min Rain = 0
KSC1 251519Z 11008KT 22/22 A3002 RMK A01 T02210221  RH  100%=      5-min Rain = 0
KSC1 251520Z 11008KT 22/22 A3002 RMK A01 T02220222  RH  100%=      5-min Rain = 0
KSC1 251521Z 11009KT 22/22 A3002 RMK A01 T02230223  RH  100%=      5-min Rain = 0
KSC1 251522Z 12011G16KT 22/22 A3002 RMK A01 T02240224  RH  100%=      5-min Rain = 0
KSC1 251523Z 12014KT 22/22 A3002 RMK A01 T02240224  RH  100%=      5-min Rain = 0
KSC1 251524Z 12012KT 22/22 A3002 RMK A01 T02230223  RH  100%=      5-min Rain = 0
KSC1 251525Z 12010KT 22/22 A3002 RMK A01 T02230223  RH  100%=      5-min Rain = 0
KSC1 251526Z 12008KT 22/22 A3002 RMK A01 T02230223  RH  100%=      5-min Rain = 0
KSC1 251527Z 11011KT 22/22 A3002 RMK A01 T02230223  RH  100%=      5-min Rain = 0
KSC1 251528Z 13012KT 22/22 A3002 RMK A01 T02230223  RH  100%=      5-min Rain = 0
KSC1 251529Z 13011KT 22/22 A3002 RMK A01 T02230223  RH  100%=      5-min Rain = 0
KSC1 251530Z 13009KT 22/22 A3002 RMK A01 T02230223  RH  100%=      5-min Rain = 0
KSC1 251531Z 13012KT 22/22 A3002 RMK A01 T02230223  RH  100%=      5-min Rain = 0
KSC1 251532Z 12009KT 22/22 A3002 RMK A01 T02240224  RH  100%=      5-min Rain = 0
KSC1 251533Z 13009KT 23/23 A3002 RMK A01 T02250225  RH  100%=      5-min Rain = 0
KSC1 251534Z 12011G17KT 23/23 A3002 RMK A01 T02260226  RH  100%=      5-min Rain = 0
KSC1 251535Z 12011KT 23/23 A3002 RMK A01 T02270226  RH  100%=      5-min Rain = 0
KSC1 251536Z 12012KT 23/23 A3002 RMK A01 T02270226  RH  099%=      5-min Rain = 0
KSC1 251537Z 13012KT 23/23 A3002 RMK A01 T02260225  RH  099%=      5-min Rain = 0
KSC1 251538Z 13013KT 23/23 A3002 RMK A01 T02260225  RH  099%=      5-min Rain = 0
KSC1 251539Z 12010KT 23/22 A3002 RMK A01 T02260224  RH  099%=      5-min Rain = 0
KSC1 251540Z 13010KT 23/23 A3002 RMK A01 T02260226  RH  100%=      5-min Rain = 0
KSC1 251541Z 12011KT 23/23 A3002 RMK A01 T02260225  RH  099%=      5-min Rain = 0
KSC1 251542Z 12012KT 23/23 A3002 RMK A01 T02260225  RH  099%=      5-min Rain = 0
KSC1 251543Z 13011G16KT 23/23 A3002 RMK A01 T02260225  RH  099%=      5-min Rain = 0
KSC1 251544Z 14014KT 23/22 A3002 RMK A01 T02260224  RH  098%=      5-min Rain = 0
KSC1 251545Z 13012KT 23/22 A3002 RMK A01 T02260224  RH  098%=      5-min Rain = 0
KSC1 251546Z 13009G14KT 23/23 A3002 RMK A01 T02260226  RH  100%=      5-min Rain = 0
KSC1 251547Z 13012KT 23/23 A3002 RMK A01 T02270226  RH  099%=      5-min Rain = 0
KSC1 251548Z 12011KT 23/23 A3002 RMK A01 T02270226  RH  099%=      5-min Rain = 0
KSC1 251549Z 12013KT 23/23 A3002 RMK A01 T02280226  RH  099%=      5-min Rain = 0
KSC1 251550Z 12014KT 23/23 A3002 RMK A01 T02270225  RH  099%=      5-min Rain = 0
KSC1 251551Z 12013G18KT 23/22 A3002 RMK A01 T02270224  RH  098%=      5-min Rain = 0
KSC1 251552Z 13015KT 23/22 A3002 RMK A01 T02270223  RH  098%=      5-min Rain = 0
KSC1 251553Z 13014KT 23/22 A3002 RMK A01 T02270222  RH  097%=      5-min Rain = 0
KSC1 251554Z 13012KT 23/22 A3002 RMK A01 T02270223  RH  097%=      5-min Rain = 0
KSC1 251555Z 12011KT 23/23 A3002 RMK A01 T02290226  RH  098%=      5-min Rain = 0
KSC1 251556Z 12012KT 23/23 A3002 RMK A01 T02300226  RH  097%=      5-min Rain = 0
KSC1 251557Z 12012G17KT 23/23 A3002 RMK A01 T02300225  RH  097%=      5-min Rain = 0
KSC1 251558Z 13011G16KT 23/23 A3002 RMK A01 T02310227  RH  097%=      5-min Rain = 0
KSC1 251559Z 13014KT 23/22 A3002 RMK A01 T02330223  RH  094%=      5-min Rain = 0
KSC1 251600Z 12011G16KT 23/23 A3002 RMK A01 T02330226  RH  096%=      5-min Rain = 0
KSC1 251601Z 12012KT 23/23 A3002 RMK A01 T02340226  RH  095%=      5-min Rain = 0
KSC1 251602Z 12014KT 23/23 A3002 RMK A01 T02340225  RH  095%=      5-min Rain = 0
KSC1 251603Z 13009G15KT 23/22 A3002 RMK A01 T02340223  RH  093%=      5-min Rain = 0
KSC1 251604Z 13011KT 24/23 A3001 RMK A01 T02350227  RH  095%=      5-min Rain = 0
KSC1 251605Z 12011KT 24/23 A3001 RMK A01 T02370228  RH  095%=      5-min Rain = 0
KSC1 251606Z 12014KT 24/23 A3002 RMK A01 T02380226  RH  093%=      5-min Rain = 0
KSC1 251607Z 13012KT 24/22 A3002 RMK A01 T02380223  RH  091%=      5-min Rain = 0
KSC1 251608Z 12011KT 24/23 A3002 RMK A01 T02370225  RH  093%=      5-min Rain = 0
KSC1 251609Z 14012KT 24/23 A3001 RMK A01 T02380226  RH  093%=      5-min Rain = 0
KSC1 251610Z 14013KT 24/23 A3001 RMK A01 T02400225  RH  092%=      5-min Rain = 0
KSC1 251611Z 14010KT 24/23 A3001 RMK A01 T02410226  RH  091%=      5-min Rain = 0
KSC1 251612Z 14009KT 24/23 A3001 RMK A01 T02430230  RH  092%=      5-min Rain = 0
KSC1 251613Z 13011KT 25/23 A3001 RMK A01 T02460231  RH  092%=      5-min Rain = 0
KSC1 251614Z 13012KT 25/23 A3002 RMK A01 T02470227  RH  089%=      5-min Rain = 0
KSC1 251615Z 12015KT 25/23 A3002 RMK A01 T02470226  RH  088%=      5-min Rain = 0
KSC1 251616Z 12014KT 25/22 A3002 RMK A01 T02450223  RH  087%=      5-min Rain = 0
KSC1 251617Z 13012KT 25/23 A3001 RMK A01 T02450225  RH  089%=      5-min Rain = 0
KSC1 251618Z 14015KT 25/23 A3001 RMK A01 T02460226  RH  089%=      5-min Rain = 0
KSC1 251619Z 14014G19KT 25/22 A3001 RMK A01 T02470223  RH  087%=      5-min Rain = 0
KSC1 251620Z 13015G20KT 25/22 A3001 RMK A01 T02470222  RH  086%=      5-min Rain = 0
KSC1 251621Z 13015KT 25/22 A3001 RMK A01 T02460222  RH  087%=      5-min Rain = 0
KSC1 251622Z 14014G19KT 25/22 A3001 RMK A01 T02460223  RH  087%=      5-min Rain = 0
KSC1 251623Z 13017KT 25/22 A3001 RMK A01 T02460222  RH  086%=      5-min Rain = 0
KSC1 251624Z 14015KT 25/22 A3001 RMK A01 T02460221  RH  086%=      5-min Rain = 0
KSC1 251625Z 14012KT 25/22 A3001 RMK A01 T02470224  RH  087%=      5-min Rain = 0
KSC1 251626Z 13012KT 25/23 A3001 RMK A01 T02490225  RH  087%=      5-min Rain = 0
KSC1 251627Z 13010KT 25/23 A3001 RMK A01 T02510227  RH  087%=      5-min Rain = 0
KSC1 251628Z 14009KT 25/23 A3001 RMK A01 T02530227  RH  086%=      5-min Rain = 0
KSC1 251629Z 13012G18KT 25/23 A3001 RMK A01 T02540226  RH  084%=      5-min Rain = 0
KSC1 251630Z 14016KT 25/22 A3001 RMK A01 T02540222  RH  082%=      5-min Rain = 0
KSC1 251631Z 14016KT 25/22 A3001 RMK A01 T02520221  RH  083%=      5-min Rain = 0
KSC1 251632Z 14018KT 25/22 A3001 RMK A01 T02510220  RH  083%=      5-min Rain = 0
KSC1 251633Z 14018KT 25/22 A3001 RMK A01 T02500217  RH  082%=      5-min Rain = 0
KSC1 251634Z 14016G23KT 25/22 A3001 RMK A01 T02500218  RH  083%=      5-min Rain = 0
KSC1 251635Z 15014KT 25/22 A3001 RMK A01 T02500221  RH  084%=      5-min Rain = 0
KSC1 251636Z 14014KT 25/22 A3001 RMK A01 T02510221  RH  083%=      5-min Rain = 0
KSC1 251637Z 13011G19KT 25/22 A3001 RMK A01 T02520221  RH  083%=      5-min Rain = 0
KSC1 251638Z 13012G18KT 25/22 A3001 RMK A01 T02530223  RH  084%=      5-min Rain = 0
KSC1 251639Z 13013KT 25/23 A3001 RMK A01 T02540225  RH  084%=      5-min Rain = 0
KSC1 251640Z 13013G18KT 26/22 A3001 RMK A01 T02550222  RH  082%=      5-min Rain = 0
KSC1 251641Z 14013KT 26/22 A3001 RMK A01 T02550222  RH  082%=      5-min Rain = 0
KSC1 251642Z 14014G19KT 26/22 A3001 RMK A01 T02550219  RH  080%=      5-min Rain = 0
KSC1 251643Z 13017KT 26/22 A3001 RMK A01 T02550219  RH  080%=      5-min Rain = 0
KSC1 251644Z 14016G22KT 26/22 A3001 RMK A01 T02550219  RH  080%=      5-min Rain = 0
KSC1 251645Z 14013KT 26/22 A3001 RMK A01 T02550219  RH  081%=      5-min Rain = 0
KSC1 251646Z 14011KT 26/22 A3001 RMK A01 T02570222  RH  081%=      5-min Rain = 0
KSC1 251647Z 14011G16KT 26/22 A3001 RMK A01 T02590224  RH  081%=      5-min Rain = 0
KSC1 251648Z 14012G18KT 26/23 A3001 RMK A01 T02610225  RH  080%=      5-min Rain = 0
KSC1 251649Z 14012G17KT 26/22 A3001 RMK A01 T02620221  RH  078%=      5-min Rain = 0
KSC1 251650Z 15016G21KT 26/22 A3001 RMK A01 T02620220  RH  078%=      5-min Rain = 0
KSC1 251651Z 14014G20KT 26/22 A3001 RMK A01 T02610221  RH  078%=      5-min Rain = 0
KSC1 251652Z 14018G24KT 26/22 A3001 RMK A01 T02610219  RH  077%=      5-min Rain = 0
KSC1 251653Z 14018G24KT 26/22 A3001 RMK A01 T02600215  RH  076%=      5-min Rain = 0
KSC1 251654Z 14016G21KT 26/22 A3001 RMK A01 T02590217  RH  078%=      5-min Rain = 0
KSC1 251655Z 14015G22KT 26/22 A3001 RMK A01 T02590217  RH  078%=      5-min Rain = 0
KSC1 251656Z 15016KT 26/22 A3001 RMK A01 T02590217  RH  078%=      5-min Rain = 0
KSC1 251657Z 14015G20KT 26/22 A3001 RMK A01 T02590220  RH  079%=      5-min Rain = 0
KSC1 251658Z 13013G18KT 26/22 A3001 RMK A01 T02610222  RH  079%=      5-min Rain = 0
KSC1 251659Z 14014KT 26/22 A3001 RMK A01 T02620219  RH  077%=      5-min Rain = 0
KSC1 251700Z 14013KT 26/22 A3001 RMK A01 T02630221  RH  077%=      5-min Rain = 0
KSC1 251701Z 15016KT 27/22 A3001 RMK A01 T02650220  RH  076%=      5-min Rain = 0
KSC1 251702Z 14015KT 27/22 A3001 RMK A01 T02650217  RH  075%=      5-min Rain = 0
KSC1 251703Z 13015G20KT 27/22 A3001 RMK A01 T02650220  RH  077%=      5-min Rain = 0
KSC1 251704Z 13016G23KT 27/22 A3001 RMK A01 T02650219  RH  076%=      5-min Rain = 0
KSC1 251705Z 14020G25KT 27/22 A30 RMK A01 T02650216  RH  074%=      5-min Rain = 0
KSC1 251706Z 15019KT 26/21 A30 RMK A01 T02640214  RH  074%=      5-min Rain = 0
KSC1 251707Z 15015KT 26/22 A30 RMK A01 T02630216  RH  075%=      5-min Rain = 0
KSC1 251708Z 14013G20KT 26/22 A30 RMK A01 T02640221  RH  077%=      5-min Rain = 0
KSC1 251709Z 14016KT 27/22 A3001 RMK A01 T02660217  RH  074%=      5-min Rain = 0
KSC1 251710Z 14018KT 27/22 A30 RMK A01 T02660216  RH  074%=      5-min Rain = 0
KSC1 251711Z 13012G17KT 27/22 A3001 RMK A01 T02650216  RH  075%=      5-min Rain = 0
KSC1 251712Z 13015KT 27/22 A3001 RMK A01 T02650219  RH  076%=      5-min Rain = 0
KSC1 251713Z 13011KT 27/22 A30 RMK A01 T02660219  RH  075%=      5-min Rain = 0
KSC1 251714Z 14015G20KT 27/22 A3001 RMK A01 T02680220  RH  075%=      5-min Rain = 0
KSC1 251715Z 14011G16KT 27/22 A3001 RMK A01 T02690219  RH  074%=      5-min Rain = 0
KSC1 251716Z 13012G17KT 27/22 A3001 RMK A01 T02690221  RH  075%=      5-min Rain = 0
KSC1 251717Z 14015KT 27/22 A3001 RMK A01 T02700218  RH  073%=      5-min Rain = 0
KSC1 251718Z 14018KT 27/22 A3001 RMK A01 T02670215  RH  073%=      5-min Rain = 0
KSC1 251719Z 14013G20KT 27/21 A3001 RMK A01 T02650214  RH  074%=      5-min Rain = 0
KSC1 251720Z 13016KT 27/22 A3001 RMK A01 T02660216  RH  074%=      5-min Rain = 0
KSC1 251721Z 13013KT 27/22 A3001 RMK A01 T02670215  RH  073%=      5-min Rain = 0
KSC1 251722Z 14015KT 27/22 A3001 RMK A01 T02670216  RH  073%=      5-min Rain = 0
KSC1 251723Z 14017G23KT 27/22 A3001 RMK A01 T02670215  RH  073%=      5-min Rain = 0
KSC1 251724Z 14016KT 27/21 A3001 RMK A01 T02670212  RH  072%=      5-min Rain = 0
KSC1 251725Z 15016KT 27/21 A3001 RMK A01 T02660214  RH  073%=      5-min Rain = 0
KSC1 251726Z 15015KT 27/22 A3001 RMK A01 T02660215  RH  073%=      5-min Rain = 0
KSC1 251727Z 14011KT 27/21 A3001 RMK A01 T02660214  RH  073%=      5-min Rain = 0
KSC1 251728Z 14013KT 27/22 A3001 RMK A01 T02670216  RH  074%=      5-min Rain = 0
KSC1 251729Z 12013KT 27/22 A3001 RMK A01 T02700219  RH  074%=      5-min Rain = 0
KSC1 251730Z 13015G22KT 27/22 A30 RMK A01 T02710219  RH  073%=      5-min Rain = 0
KSC1 251731Z 14016G21KT 27/21 A30 RMK A01 T02720214  RH  071%=      5-min Rain = 0
KSC1 251732Z 14018KT 27/22 A3001 RMK A01 T02720215  RH  071%=      5-min Rain = 0
KSC1 251733Z 14015G20KT 27/21 A30 RMK A01 T02720213  RH  070%=      5-min Rain = 0
KSC1 251734Z 13017KT 27/21 A30 RMK A01 T02710214  RH  071%=      5-min Rain = 0
KSC1 251735Z 13018KT 27/21 A30 RMK A01 T02710213  RH  071%=      5-min Rain = 0
KSC1 251736Z 13017KT 27/21 A3001 RMK A01 T02710214  RH  071%=      5-min Rain = 0
KSC1 251737Z 14013KT 27/22 A30 RMK A01 T02720216  RH  071%=      5-min Rain = 0
KSC1 251738Z 14012G18KT 27/22 A30 RMK A01 T02730218  RH  072%=      5-min Rain = 0
KSC1 251739Z 14017KT 28/22 A30 RMK A01 T02760216  RH  070%=      5-min Rain = 0
KSC1 251740Z 15015KT 28/21 A30 RMK A01 T02760214  RH  069%=      5-min Rain = 0
KSC1 251741Z 14014KT 28/21 A30 RMK A01 T02750213  RH  069%=      5-min Rain = 0
KSC1 251742Z 14014KT 27/21 A30 RMK A01 T02740214  RH  070%=      5-min Rain = 0
KSC1 251743Z 13011KT 27/22 A30 RMK A01 T02730215  RH  071%=      5-min Rain = 0
KSC1 251744Z 13011KT 27/22 A30 RMK A01 T02730217  RH  072%=      5-min Rain = 0
KSC1 251745Z 13011KT 27/22 A30 RMK A01 T02720217  RH  072%=      5-min Rain = 0
KSC1 251746Z 13013G18KT 27/22 A30 RMK A01 T02720215  RH  071%=      5-min Rain = 0
KSC1 251747Z 15013G19KT 27/22 A30 RMK A01 T02720216  RH  072%=      5-min Rain = 0
KSC1 251748Z 13015G20KT 27/21 A30 RMK A01 T02740214  RH  070%=      5-min Rain = 0
KSC1 251749Z 13015KT 28/21 A30 RMK A01 T02750212  RH  068%=      5-min Rain = 0
KSC1 251750Z 14012KT 28/21 A30 RMK A01 T02760214  RH  069%=      5-min Rain = 0
KSC1 251751Z 14017KT 28/21 A30 RMK A01 T02780211  RH  067%=      5-min Rain = 0
KSC1 251752Z 15020G26KT 28/21 A30 RMK A01 T02760208  RH  066%=      5-min Rain = 0
KSC1 251753Z 15018G24KT 28/21 A30 RMK A01 T02750206  RH  066%=      5-min Rain = 0
KSC1 251754Z 15017KT 28/21 A30 RMK A01 T02760206  RH  066%=      5-min Rain = 0
KSC1 251755Z 14018KT 28/21 A30 RMK A01 T02770207  RH  066%=      5-min Rain = 0
KSC1 251756Z 14016G22KT 28/21 A2999 RMK A01 T02760207  RH  066%=      5-min Rain = 0
KSC1 251757Z 13013G18KT 28/21 A30 RMK A01 T02770213  RH  068%=      5-min Rain = 0
KSC1 251758Z 13012G17KT 28/21 A30 RMK A01 T02780211  RH  067%=      5-min Rain = 0
KSC1 251759Z 14016G21KT 28/21 A30 RMK A01 T02780210  RH  067%=      5-min Rain = 0
KSC1 251800Z 13013G18KT 28/21 A30 RMK A01 T02770209  RH  066%=      5-min Rain = 0
KSC1 251801Z 14014KT 28/21 A30 RMK A01 T02770209  RH  066%=      5-min Rain = 0
KSC1 251802Z 14018G25KT 28/21 A30 RMK A01 T02770208  RH  066%=      5-min Rain = 0
KSC1 251803Z 14017KT 28/21 A30 RMK A01 T02760205  RH  065%=      5-min Rain = 0
KSC1 251804Z 14015G21KT 28/21 A30 RMK A01 T02760207  RH  066%=      5-min Rain = 0
KSC1 251805Z 14018KT 28/21 A30 RMK A01 T02780207  RH  065%=      5-min Rain = 0
KSC1 251806Z 14017G22KT 28/21 A30 RMK A01 T02780208  RH  066%=      5-min Rain = 0
KSC1 251807Z 14018G24KT 28/21 A30 RMK A01 T02790208  RH  065%=      5-min Rain = 0
KSC1 251808Z 14016KT 28/21 A30 RMK A01 T02780208  RH  066%=      5-min Rain = 0
KSC1 251809Z 13014G21KT 28/21 A30 RMK A01 T02760210  RH  067%=      5-min Rain = 0
KSC1 251810Z 13013G18KT 28/21 A30 RMK A01 T02760210  RH  067%=      5-min Rain = 0
KSC1 251811Z 14015KT 28/21 A30 RMK A01 T02760210  RH  067%=      5-min Rain = 0
KSC1 251812Z 13014KT 28/21 A30 RMK A01 T02750211  RH  068%=      5-min Rain = 0
KSC1 251813Z 13013KT 27/21 A30 RMK A01 T02740212  RH  069%=      5-min Rain = 0
KSC1 251814Z 13010G15KT 27/22 A2999 RMK A01 T02730215  RH  070%=      5-min Rain = 0
KSC1 251815Z 14012KT 28/22 A2999 RMK A01 T02760217  RH  070%=      5-min Rain = 0
KSC1 251816Z 14012KT 28/22 A2999 RMK A01 T02780216  RH  069%=      5-min Rain = 0
KSC1 251817Z 14012KT 28/21 A2999 RMK A01 T02780214  RH  068%=      5-min Rain = 0
KSC1 251818Z 13013KT 28/22 A2999 RMK A01 T02780215  RH  068%=      5-min Rain = 0
KSC1 251819Z 14015KT 28/21 A2999 RMK A01 T02810212  RH  066%=      5-min Rain = 0
KSC1 251820Z 12013G18KT 28/21 A2999 RMK A01 T02810213  RH  067%=      5-min Rain = 0
KSC1 251821Z 13015KT 28/21 A2999 RMK A01 T02800213  RH  067%=      5-min Rain = 0
KSC1 251822Z 13012KT 28/21 A2999 RMK A01 T02790212  RH  067%=      5-min Rain = 0
KSC1 251823Z 12010KT 28/21 A2999 RMK A01 T02790213  RH  067%=      5-min Rain = 0
KSC1 251824Z 12010KT 28/22 A2999 RMK A01 T02810215  RH  067%=      5-min Rain = 0
KSC1 251825Z 14012KT 28/22 A2999 RMK A01 T02840215  RH  066%=      5-min Rain = 0
KSC1 251826Z 14012KT 29/21 A2999 RMK A01 T02860214  RH  065%=      5-min Rain = 0
KSC1 251827Z 14018G26KT 29/21 A2999 RMK A01 T02870210  RH  063%=      5-min Rain = 0
KSC1 251828Z 13016KT 29/21 A2999 RMK A01 T02860206  RH  062%=      5-min Rain = 0
KSC1 251829Z 15015KT 28/21 A2999 RMK A01 T02840206  RH  063%=      5-min Rain = 0
KSC1 251830Z 16016KT 28/21 A2998 RMK A01 T02840207  RH  063%=      5-min Rain = 0
KSC1 251831Z 15016G22KT 28/21 A2998 RMK A01 T02840207  RH  063%=      5-min Rain = 0
KSC1 251832Z 14017G25KT 29/21 A2998 RMK A01 T02850207  RH  063%=      5-min Rain = 0
KSC1 251833Z 14014G19KT 29/21 A2998 RMK A01 T02870209  RH  063%=      5-min Rain = 0
KSC1 251834Z 14014KT 29/21 A2998 RMK A01 T02890211  RH  063%=      5-min Rain = 0
KSC1 251835Z 14014KT 29/21 A2998 RMK A01 T02910211  RH  062%=      5-min Rain = 0
KSC1 251836Z 14014G19KT 29/21 A2998 RMK A01 T02920212  RH  062%=      5-min Rain = 0
KSC1 251837Z 14012KT 29/21 A2998 RMK A01 T02920211  RH  062%=      5-min Rain = 0
KSC1 251838Z 16015G20KT 29/21 A2998 RMK A01 T02900207  RH  061%=      5-min Rain = 0
KSC1 251839Z 17017KT 29/20 A2998 RMK A01 T02880204  RH  060%=      5-min Rain = 0
KSC1 251840Z 15011KT 29/21 A2998 RMK A01 T02890207  RH  061%=      5-min Rain = 0
KSC1 251841Z 14015KT 29/21 A2998 RMK A01 T02910206  RH  060%=      5-min Rain = 0
KSC1 251842Z 14015G20KT 29/20 A2998 RMK A01 T02890201  RH  059%=      5-min Rain = 0
KSC1 251843Z 14014G19KT 29/20 A2998 RMK A01 T02870202  RH  060%=      5-min Rain = 0
KSC1 251844Z 14013KT 29/20 A2997 RMK A01 T02860204  RH  061%=      5-min Rain = 0
KSC1 251845Z 13012G20KT 29/21 A2997 RMK A01 T02880206  RH  061%=      5-min Rain = 0
KSC1 251846Z 13017KT 29/20 A2997 RMK A01 T02900203  RH  059%=      5-min Rain = 0
KSC1 251847Z 14013G18KT 29/20 A2997 RMK A01 T02910203  RH  059%=      5-min Rain = 0
KSC1 251848Z 13015G20KT 29/20 A2997 RMK A01 T02920204  RH  059%=      5-min Rain = 0
KSC1 251849Z 14013KT 29/20 A2997 RMK A01 T02930204  RH  059%=      5-min Rain = 0
KSC1 251850Z 15014KT 29/20 A2997 RMK A01 T02930204  RH  059%=      5-min Rain = 0
KSC1 251851Z 14014G19KT 29/20 A2997 RMK A01 T02910202  RH  059%=      5-min Rain = 0
KSC1 251852Z 15014G19KT 29/20 A2997 RMK A01 T02890203  RH  060%=      5-min Rain = 0
KSC1 251853Z 16013G20KT 29/21 A2997 RMK A01 T02910205  RH  060%=      5-min Rain = 0
KSC1 251854Z 14012G19KT 29/21 A2997 RMK A01 T02940207  RH  060%=      5-min Rain = 0
KSC1 251855Z 14014G19KT 30/21 A2997 RMK A01 T02980206  RH  058%=      5-min Rain = 0
KSC1 251856Z 13017G23KT 30/20 A2997 RMK A01 T02980204  RH  057%=      5-min Rain = 0
KSC1 251857Z 14016G22KT 30/20 A2997 RMK A01 T02950201  RH  057%=      5-min Rain = 0
KSC1 251858Z 13018KT 29/20 A2997 RMK A01 T02920199  RH  057%=      5-min Rain = 0
KSC1 251859Z 13017G22KT 29/20 A2997 RMK A01 T02900201  RH  058%=      5-min Rain = 0
KSC1 251900Z 13017G22KT 29/20 A2997 RMK A01 T02910200  RH  058%=      5-min Rain = 0
KSC1 251901Z 13013G21KT 30/20 A2997 RMK A01 T02950203  RH  058%=      5-min Rain = 0
KSC1 251902Z 13016KT 30/20 A2997 RMK A01 T02970202  RH  057%=      5-min Rain = 0
KSC1 251903Z 15019G26KT 30/20 A2997 RMK A01 T02980200  RH  056%=      5-min Rain = 0
KSC1 251904Z 14015G21KT 30/20 A2997 RMK A01 T02980200  RH  056%=      5-min Rain = 0
KSC1 251905Z 14017G23KT 30/20 A2996 RMK A01 T02960200  RH  056%=      5-min Rain = 0
KSC1 251906Z 14016KT 30/20 A2996 RMK A01 T02950199  RH  056%=      5-min Rain = 0
KSC1 251907Z 15017KT 29/20 A2996 RMK A01 T02920200  RH  057%=      5-min Rain = 0
KSC1 251908Z 14018KT 29/20 A2996 RMK A01 T02920198  RH  057%=      5-min Rain = 0
KSC1 251909Z 15013G19KT 29/20 A2996 RMK A01 T02910199  RH  058%=      5-min Rain = 0
KSC1 251910Z 16012KT 29/20 A2996 RMK A01 T02920203  RH  059%=      5-min Rain = 0
KSC1 251911Z 16015KT 29/20 A2996 RMK A01 T02940202  RH  058%=      5-min Rain = 0
KSC1 251912Z 15015KT 29/20 A2996 RMK A01 T02930200  RH  057%=      5-min Rain = 0
KSC1 251913Z 15010G15KT 29/20 A2996 RMK A01 T02910201  RH  058%=      5-min Rain = 0
KSC1 251914Z 13017G23KT 29/20 A2996 RMK A01 T02900204  RH  060%=      5-min Rain = 0
KSC1 251915Z 13019G24KT 29/20 A2996 RMK A01 T02900198  RH  058%=      5-min Rain = 0
KSC1 251916Z 13017G22KT 29/20 A2996 RMK A01 T02880198  RH  058%=      5-min Rain = 0
KSC1 251917Z 14017KT 29/20 A2996 RMK A01 T02860197  RH  058%=      5-min Rain = 0
KSC1 251918Z 13014KT 29/20 A2996 RMK A01 T02850197  RH  059%=      5-min Rain = 0
KSC1 251919Z 13017G22KT 28/20 A2996 RMK A01 T02840196  RH  059%=      5-min Rain = 0
KSC1 251920Z 14018G23KT 28/20 A2996 RMK A01 T02840196  RH  059%=      5-min Rain = 0
KSC1 251921Z 14014G19KT 29/20 A2996 RMK A01 T02860198  RH  059%=      5-min Rain = 0
KSC1 251922Z 14011KT 29/20 A2996 RMK A01 T02860199  RH  059%=      5-min Rain = 0
KSC1 251923Z 14012KT 29/20 A2996 RMK A01 T02870200  RH  059%=      5-min Rain = 0
KSC1 251924Z 14016KT 29/20 A2996 RMK A01 T02870197  RH  058%=      5-min Rain = 0
KSC1 251925Z 14017G25KT 29/20 A2996 RMK A01 T02860196  RH  058%=      5-min Rain = 0
KSC1 251926Z 14018G23KT 29/19 A2996 RMK A01 T02850194  RH  057%=      5-min Rain = 0
KSC1 251927Z 14018KT 29/19 A2996 RMK A01 T02850193  RH  057%=      5-min Rain = 0
KSC1 251928Z 15015KT 29/20 A2996 RMK A01 T02870195  RH  057%=      5-min Rain = 0
KSC1 251929Z 14014KT 29/20 A2996 RMK A01 T02910196  RH  057%=      5-min Rain = 0
KSC1 251930Z 14013KT 29/20 A2996 RMK A01 T02930197  RH  057%=      5-min Rain = 0
KSC1 251931Z 15012G18KT 29/20 A2995 RMK A01 T02930197  RH  056%=      5-min Rain = 0
KSC1 251932Z 16014KT 29/20 A2995 RMK A01 T02930199  RH  057%=      5-min Rain = 0
KSC1 251933Z 16013KT 29/20 A2995 RMK A01 T02940198  RH  056%=      5-min Rain = 0
KSC1 251934Z 16014KT 30/20 A2995 RMK A01 T02960201  RH  056%=      5-min Rain = 0
KSC1 251935Z 16013G18KT 30/20 A2995 RMK A01 T02990203  RH  056%=      5-min Rain = 0
KSC1 251936Z 15014G22KT 30/20 A2996 RMK A01 T03000201  RH  055%=      5-min Rain = 0
KSC1 251937Z 15014KT 30/20 A2996 RMK A01 T02990198  RH  055%=      5-min Rain = 0
KSC1 251938Z 15014KT 30/20 A2996 RMK A01 T02960197  RH  055%=      5-min Rain = 0
KSC1 251939Z 16013KT 29/20 A2996 RMK A01 T02940198  RH  057%=      5-min Rain = 0
KSC1 251940Z 16016G21KT 29/20 A2996 RMK A01 T02930198  RH  057%=      5-min Rain = 0
KSC1 251941Z 16015G20KT 29/20 A2995 RMK A01 T02900196  RH  057%=      5-min Rain = 0
KSC1 251942Z 16014KT 29/20 A2995 RMK A01 T02890198  RH  058%=      5-min Rain = 0
KSC1 251943Z 15014KT 29/20 A2996 RMK A01 T02890197  RH  057%=      5-min Rain = 0
KSC1 251944Z 15011G16KT 29/20 A2996 RMK A01 T02890199  RH  058%=      5-min Rain = 0
KSC1 251945Z 14016KT 29/20 A2996 RMK A01 T02890196  RH  057%=      5-min Rain = 0
KSC1 251946Z 13015G20KT 29/19 A2996 RMK A01 T02890192  RH  056%=      5-min Rain = 0
KSC1 251947Z 13014G20KT 29/19 A2995 RMK A01 T02890192  RH  056%=      5-min Rain = 0
KSC1 251948Z 14013KT 29/19 A2995 RMK A01 T02890194  RH  057%=      5-min Rain = 0
KSC1 251949Z 14013G19KT 29/19 A2995 RMK A01 T02880194  RH  057%=      5-min Rain = 0
KSC1 251950Z 14016G21KT 29/19 A2995 RMK A01 T02890192  RH  056%=      5-min Rain = 0
KSC1 251951Z 14014KT 29/19 A2995 RMK A01 T02880192  RH  056%=      5-min Rain = 0
KSC1 251952Z 14013G18KT 29/19 A2995 RMK A01 T02880194  RH  057%=      5-min Rain = 0
KSC1 251953Z 14012KT 29/19 A2995 RMK A01 T02880194  RH  057%=      5-min Rain = 0
KSC1 251954Z 16014KT 29/19 A2995 RMK A01 T02890193  RH  056%=      5-min Rain = 0
KSC1 251955Z 15011G16KT 29/19 A2995 RMK A01 T02890193  RH  056%=      5-min Rain = 0
KSC1 251956Z 16013KT 29/20 A2995 RMK A01 T02890195  RH  057%=      5-min Rain = 0
KSC1 251957Z 16014G20KT 29/19 A2995 RMK A01 T02890194  RH  057%=      5-min Rain = 0
KSC1 251958Z 16015KT 29/19 A2995 RMK A01 T02880194  RH  057%=      5-min Rain = 0
KSC1 251959Z 16014G19KT 29/20 A2995 RMK A01 T02870195  RH  057%=      5-min Rain = 0
KSC1 252000Z 16014KT 29/20 A2995 RMK A01 T02870195  RH  058%=      5-min Rain = 0
KSC1 252001Z 15010KT 29/20 A2995 RMK A01 T02860195  RH  058%=      5-min Rain = 0
KSC1 252002Z 14008KT 29/20 A2995 RMK A01 T02860198  RH  059%=      5-min Rain = 0
KSC1 252003Z 13013G20KT 29/20 A2995 RMK A01 T02860196  RH  058%=      5-min Rain = 0
KSC1 252004Z 14015G22KT 29/19 A2995 RMK A01 T02860192  RH  057%=      5-min Rain = 0
KSC1 252005Z 15016KT 29/19 A2995 RMK A01 T02850190  RH  056%=      5-min Rain = 0
KSC1 252006Z 14012G17KT 29/19 A2995 RMK A01 T02850190  RH  057%=      5-min Rain = 0
KSC1 252007Z 14013KT 28/19 A2995 RMK A01 T02840188  RH  056%=      5-min Rain = 0
KSC1 252008Z 14013KT 28/19 A2995 RMK A01 T02840188  RH  056%=      5-min Rain = 0
KSC1 252009Z 14010G15KT 28/19 A2995 RMK A01 T02830189  RH  057%=      5-min Rain = 0
KSC1 252010Z 14014KT 28/19 A2995 RMK A01 T02820190  RH  057%=      5-min Rain = 0
KSC1 252011Z 15014KT 28/19 A2995 RMK A01 T02820189  RH  057%=      5-min Rain = 0
KSC1 252012Z 15014KT 28/19 A2995 RMK A01 T02820189  RH  057%=      5-min Rain = 0
KSC1 252013Z 16015KT 28/19 A2995 RMK A01 T02820189  RH  057%=      5-min Rain = 0
KSC1 252014Z 15014G19KT 28/19 A2995 RMK A01 T02810189  RH  057%=      5-min Rain = 0
KSC1 252015Z 14014G21KT 28/19 A2995 RMK A01 T02820189  RH  057%=      5-min Rain = 0
KSC1 252016Z 15017G23KT 28/19 A2995 RMK A01 T02810187  RH  057%=      5-min Rain = 0
KSC1 252017Z 15018KT 28/19 A2995 RMK A01 T02810187  RH  056%=      5-min Rain = 0
KSC1 252018Z 15017KT 28/19 A2995 RMK A01 T02810186  RH  056%=      5-min Rain = 0
KSC1 252019Z 15013KT 28/19 A2995 RMK A01 T02800186  RH  056%=      5-min Rain = 0
KSC1 252020Z 15012KT 28/19 A2995 RMK A01 T02800187  RH  057%=      5-min Rain = 0
KSC1 252021Z 15012G17KT 28/19 A2995 RMK A01 T02800187  RH  057%=      5-min Rain = 0
KSC1 252022Z 15013G19KT 28/19 A2995 RMK A01 T02800187  RH  057%=      5-min Rain = 0
KSC1 252023Z 15013KT 28/19 A2996 RMK A01 T02790187  RH  057%=      5-min Rain = 0
KSC1 252024Z 15013KT 28/19 A2996 RMK A01 T02790187  RH  057%=      5-min Rain = 0
KSC1 252025Z 15012G18KT 28/19 A2996 RMK A01 T02790188  RH  058%=      5-min Rain = 0
KSC1 252026Z 15011G16KT 28/19 A2996 RMK A01 T02790189  RH  058%=      5-min Rain = 0
KSC1 252027Z 15013KT 28/19 A2996 RMK A01 T02790190  RH  058%=      5-min Rain = 0
KSC1 252028Z 16013KT 28/19 A2996 RMK A01 T02790190  RH  058%=      5-min Rain = 0
KSC1 252029Z 15012KT 28/19 A2996 RMK A01 T02790191  RH  059%=      5-min Rain = 0
KSC1 252030Z 15014KT 28/19 A2995 RMK A01 T02780190  RH  059%=      5-min Rain = 0
KSC1 252031Z 15010G16KT 28/19 A2995 RMK A01 T02780190  RH  059%=      5-min Rain = 0
KSC1 252032Z 14011KT 28/19 A2995 RMK A01 T02780191  RH  059%=      5-min Rain = 0
KSC1 252033Z 14011G16KT 28/19 A2995 RMK A01 T02780191  RH  059%=      5-min Rain = 0
KSC1 252034Z 15013KT 28/19 A2995 RMK A01 T02780192  RH  059%=      5-min Rain = 0
KSC1 252035Z 15013KT 28/19 A2995 RMK A01 T02780190  RH  059%=      5-min Rain = 0
KSC1 252036Z 15013KT 28/19 A2995 RMK A01 T02770191  RH  059%=      5-min Rain = 0
KSC1 252037Z 14012KT 28/19 A2995 RMK A01 T02770191  RH  059%=      5-min Rain = 0
KSC1 252038Z 14012KT 28/19 A2995 RMK A01 T02770191  RH  059%=      5-min Rain = 0
KSC1 252039Z 15014KT 28/19 A2995 RMK A01 T02760190  RH  059%=      5-min Rain = 0
KSC1 252040Z 15009KT 28/19 A2995 RMK A01 T02770191  RH  060%=      5-min Rain = 0
KSC1 252041Z 15008KT 28/19 A2995 RMK A01 T02760193  RH  060%=      5-min Rain = 0
KSC1 252042Z 15009KT 28/19 A2995 RMK A01 T02760192  RH  060%=      5-min Rain = 0
KSC1 252043Z 15008KT 28/19 A2995 RMK A01 T02750192  RH  060%=      5-min Rain = 0
KSC1 252044Z 15010KT 28/19 A2995 RMK A01 T02750193  RH  061%=      5-min Rain = 0
KSC1 252045Z 15010G17KT 28/19 A2995 RMK A01 T02750193  RH  061%=      5-min Rain = 0
KSC1 252046Z 15010G16KT 28/19 A2995 RMK A01 T02750191  RH  060%=      5-min Rain = 0
KSC1 252047Z 15012G17KT 28/19 A2995 RMK A01 T02750191  RH  060%=      5-min Rain = 0
KSC1 252048Z 15014KT 28/19 A2995 RMK A01 T02750189  RH  060%=      5-min Rain = 0
KSC1 252049Z 15010KT 28/19 A2995 RMK A01 T02750189  RH  060%=      5-min Rain = 0
KSC1 252050Z 15011KT 28/19 A2995 RMK A01 T02750191  RH  060%=      5-min Rain = 0
KSC1 252051Z 15010KT 28/19 A2995 RMK A01 T02750190  RH  060%=      5-min Rain = 0
KSC1 252052Z 15010KT 27/19 A2995 RMK A01 T02740191  RH  060%=      5-min Rain = 0
KSC1 252053Z 15009KT 27/19 A2995 RMK A01 T02740190  RH  060%=      5-min Rain = 0
KSC1 252054Z 15008KT 27/19 A2995 RMK A01 T02740191  RH  061%=      5-min Rain = 0
KSC1 252055Z 15012KT 27/19 A2995 RMK A01 T02730191  RH  061%=      5-min Rain = 0
KSC1 252056Z 15011KT 27/19 A2995 RMK A01 T02730190  RH  061%=      5-min Rain = 0
KSC1 252057Z 14009KT 27/19 A2995 RMK A01 T02730191  RH  061%=      5-min Rain = 0
KSC1 252058Z 15012KT 27/19 A2995 RMK A01 T02730191  RH  061%=      5-min Rain = 0
KSC1 252059Z 15010KT 27/19 A2995 RMK A01 T02730190  RH  061%=      5-min Rain = 0
KSC1 252100Z 15010KT 27/19 A2995 RMK A01 T02730191  RH  061%=      5-min Rain = 0
KSC1 252101Z 16010KT 27/19 A2995 RMK A01 T02730190  RH  061%=      5-min Rain = 0
KSC1 252102Z 16008KT 27/19 A2995 RMK A01 T02730191  RH  061%=      5-min Rain = 0
KSC1 252103Z 15007KT 27/19 A2995 RMK A01 T02730192  RH  061%=      5-min Rain = 0
KSC1 252104Z 15009KT 27/19 A2995 RMK A01 T02720191  RH  061%=      5-min Rain = 0
KSC1 252105Z 15010KT 27/19 A2995 RMK A01 T02720191  RH  061%=      5-min Rain = 0
KSC1 252106Z 14011KT 27/19 A2995 RMK A01 T02720190  RH  061%=      5-min Rain = 0
KSC1 252107Z 14012KT 27/19 A2995 RMK A01 T02720190  RH  061%=      5-min Rain = 0
KSC1 252108Z 15009KT 27/19 A2995 RMK A01 T02720189  RH  060%=      5-min Rain = 0
KSC1 252109Z 15008KT 27/19 A2995 RMK A01 T02720191  RH  061%=      5-min Rain = 0
KSC1 252110Z 15008KT 27/19 A2994 RMK A01 T02720191  RH  061%=      5-min Rain = 0
KSC1 252111Z 15008KT 27/19 A2994 RMK A01 T02720192  RH  061%=      5-min Rain = 0
KSC1 252112Z 14007KT 27/19 A2994 RMK A01 T02720192  RH  062%=      5-min Rain = 0
KSC1 252113Z 15008KT 27/19 A2994 RMK A01 T02710192  RH  062%=      5-min Rain = 0
KSC1 252114Z 15008KT 27/19 A2994 RMK A01 T02710191  RH  062%=      5-min Rain = 0
KSC1 252115Z 15009KT 27/19 A2994 RMK A01 T02710191  RH  062%=      5-min Rain = 0
KSC1 252116Z 14008KT 27/19 A2994 RMK A01 T02710191  RH  062%=      5-min Rain = 0
KSC1 252117Z 15007G13KT 27/19 A2994 RMK A01 T02710192  RH  062%=      5-min Rain = 0
KSC1 252118Z 15007KT 27/19 A2994 RMK A01 T02710193  RH  063%=      5-min Rain = 0
KSC1 252119Z 14009KT 27/19 A2994 RMK A01 T02700192  RH  062%=      5-min Rain = 0
KSC1 252120Z 15007KT 27/19 A2995 RMK A01 T02700193  RH  062%=      5-min Rain = 0
KSC1 252121Z 15009KT 27/19 A2995 RMK A01 T02700193  RH  062%=      5-min Rain = 0
KSC1 252122Z 15008KT 27/19 A2995 RMK A01 T02700192  RH  062%=      5-min Rain = 0
KSC1 252123Z 15009KT 27/19 A2995 RMK A01 T02700193  RH  062%=      5-min Rain = 0
KSC1 252124Z 15008KT 27/19 A2995 RMK A01 T02700193  RH  062%=      5-min Rain = 0
KSC1 252125Z 15007KT 27/19 A2995 RMK A01 T02700193  RH  063%=      5-min Rain = 0
KSC1 252126Z 15007KT 27/19 A2995 RMK A01 T02700193  RH  063%=      5-min Rain = 0
KSC1 252127Z 15007KT 27/19 A2995 RMK A01 T02700194  RH  063%=      5-min Rain = 0
KSC1 252128Z 15008KT 27/19 A2995 RMK A01 T02700194  RH  063%=      5-min Rain = 0
KSC1 252129Z 15009KT 27/19 A2995 RMK A01 T02700194  RH  063%=      5-min Rain = 0
KSC1 252130Z 15008KT 27/19 A2995 RMK A01 T02700193  RH  063%=      5-min Rain = 0
KSC1 252131Z 15009KT 27/19 A2995 RMK A01 T02690193  RH  063%=      5-min Rain = 0
KSC1 252132Z 15008KT 27/19 A2995 RMK A01 T02700193  RH  063%=      5-min Rain = 0
KSC1 252133Z 15009KT 27/19 A2995 RMK A01 T02700194  RH  063%=      5-min Rain = 0
KSC1 252134Z 15009KT 27/19 A2995 RMK A01 T02700193  RH  063%=      5-min Rain = 0
KSC1 252135Z 15009KT 27/19 A2995 RMK A01 T02700194  RH  063%=      5-min Rain = 0
KSC1 252136Z 15010KT 27/19 A2995 RMK A01 T02690193  RH  063%=      5-min Rain = 0
KSC1 252137Z 15009KT 27/19 A2995 RMK A01 T02690193  RH  063%=      5-min Rain = 0
KSC1 252138Z 15008KT 27/19 A2995 RMK A01 T02700193  RH  063%=      5-min Rain = 0
KSC1 252139Z 15009KT 27/19 A2995 RMK A01 T02700193  RH  063%=      5-min Rain = 0
KSC1 252140Z 15008KT 27/19 A2994 RMK A01 T02700193  RH  063%=      5-min Rain = 0
KSC1 252141Z 16008KT 27/19 A2994 RMK A01 T02690193  RH  063%=      5-min Rain = 0
KSC1 252142Z 15011KT 27/19 A2994 RMK A01 T02690193  RH  063%=      5-min Rain = 0
KSC1 252143Z 15011KT 27/19 A2994 RMK A01 T02680192  RH  063%=      5-min Rain = 0
KSC1 252144Z 15007KT 27/19 A2994 RMK A01 T02680191  RH  063%=      5-min Rain = 0
KSC1 252145Z 15008KT 27/19 A2994 RMK A01 T02690193  RH  063%=      5-min Rain = 0
KSC1 252146Z 15011KT 27/19 A2994 RMK A01 T02690193  RH  063%=      5-min Rain = 0
KSC1 252147Z 15012KT 27/19 A2994 RMK A01 T02690191  RH  062%=      5-min Rain = 0
KSC1 252148Z 15011KT 27/19 A2994 RMK A01 T02690189  RH  062%=      5-min Rain = 0
KSC1 252149Z 15009KT 27/19 A2994 RMK A01 T02690190  RH  062%=      5-min Rain = 0
KSC1 252150Z 15009KT 27/19 A2995 RMK A01 T02690190  RH  062%=      5-min Rain = 0
KSC1 252151Z 15009KT 27/19 A2994 RMK A01 T02690191  RH  062%=      5-min Rain = 0
KSC1 252152Z 15010KT 27/19 A2994 RMK A01 T02680190  RH  062%=      5-min Rain = 0
KSC1 252153Z 15011KT 27/19 A2994 RMK A01 T02680189  RH  062%=      5-min Rain = 0
KSC1 252154Z 15011KT 27/19 A2994 RMK A01 T02680188  RH  061%=      5-min Rain = 0
KSC1 252155Z 14010KT 27/19 A2994 RMK A01 T02690187  RH  061%=      5-min Rain = 0
KSC1 252156Z 14009KT 27/19 A2995 RMK A01 T02690187  RH  061%=      5-min Rain = 0
KSC1 252157Z 15008KT 27/19 A2995 RMK A01 T02690188  RH  061%=      5-min Rain = 0
KSC1 252158Z 14008KT 27/19 A2995 RMK A01 T02690189  RH  061%=      5-min Rain = 0
KSC1 252159Z 14008KT 27/19 A2995 RMK A01 T02680189  RH  062%=      5-min Rain = 0
KSC1 252200Z 15007KT 27/19 A2995 RMK A01 T02680190  RH  062%=      5-min Rain = 0
KSC1 252201Z 14007KT 27/19 A2995 RMK A01 T02670190  RH  062%=      5-min Rain = 0
KSC1 252202Z 14009KT 27/19 A2995 RMK A01 T02670189  RH  062%=      5-min Rain = 0
KSC1 252203Z 14007KT 27/19 A2994 RMK A01 T02670189  RH  062%=      5-min Rain = 0
KSC1 252204Z 14007KT 27/19 A2995 RMK A01 T02670189  RH  062%=      5-min Rain = 0
KSC1 252205Z 14009KT 27/19 A2995 RMK A01 T02670190  RH  062%=      5-min Rain = 0
KSC1 252206Z 14007KT 27/19 A2995 RMK A01 T02670190  RH  063%=      5-min Rain = 0
KSC1 252207Z 14007KT 27/19 A2995 RMK A01 T02670190  RH  063%=      5-min Rain = 0
KSC1 252208Z 14007KT 27/19 A2995 RMK A01 T02660190  RH  063%=      5-min Rain = 0
KSC1 252209Z 14006KT 27/19 A2994 RMK A01 T02660191  RH  063%=      5-min Rain = 0
KSC1 252210Z 14007KT 27/19 A2994 RMK A01 T02660191  RH  063%=      5-min Rain = 0
KSC1 252211Z 14007KT 27/19 A2994 RMK A01 T02660192  RH  064%=      5-min Rain = 0
KSC1 252212Z 14007KT 27/19 A2994 RMK A01 T02650191  RH  064%=      5-min Rain = 0
KSC1 252213Z 13006KT 27/19 A2994 RMK A01 T02650191  RH  064%=      5-min Rain = 0
KSC1 252214Z 13006KT 27/19 A2995 RMK A01 T02660193  RH  064%=      5-min Rain = 0
KSC1 252215Z 13005KT 27/19 A2995 RMK A01 T02650193  RH  065%=      5-min Rain = 0
KSC1 252216Z 14006KT 26/19 A2995 RMK A01 T02640193  RH  065%=      5-min Rain = 0
KSC1 252217Z 14006KT 26/19 A2995 RMK A01 T02640193  RH  065%=      5-min Rain = 0
KSC1 252218Z 13005KT 26/19 A2995 RMK A01 T02640194  RH  065%=      5-min Rain = 0
KSC1 252219Z 13005KT 26/20 A2995 RMK A01 T02630195  RH  066%=      5-min Rain = 0
KSC1 252220Z 13008KT 26/19 A2995 RMK A01 T02630194  RH  066%=      5-min Rain = 0
KSC1 252221Z 14007KT 26/19 A2995 RMK A01 T02630193  RH  065%=      5-min Rain = 0
KSC1 252222Z 14007KT 26/19 A2995 RMK A01 T02640194  RH  065%=      5-min Rain = 0
KSC1 252223Z 14007KT 26/19 A2995 RMK A01 T02640193  RH  065%=      5-min Rain = 0
KSC1 252224Z 14007KT 26/19 A2995 RMK A01 T02640194  RH  065%=      5-min Rain = 0
KSC1 252225Z 14007KT 26/19 A2995 RMK A01 T02640194  RH  065%=      5-min Rain = 0
KSC1 252226Z 15006KT 27/19 A2995 RMK A01 T02650194  RH  065%=      5-min Rain = 0
KSC1 252227Z 16007KT 27/19 A2995 RMK A01 T02650194  RH  065%=      5-min Rain = 0
KSC1 252228Z 15006KT 27/20 A2995 RMK A01 T02650195  RH  065%=      5-min Rain = 0
KSC1 252229Z 15006KT 26/19 A2995 RMK A01 T02640194  RH  065%=      5-min Rain = 0
KSC1 252230Z 15006KT 27/20 A2995 RMK A01 T02650195  RH  066%=      5-min Rain = 0
KSC1 252231Z 15005KT 26/20 A2995 RMK A01 T02640195  RH  066%=      5-min Rain = 0
KSC1 252232Z 15005KT 26/20 A2995 RMK A01 T02640195  RH  066%=      5-min Rain = 0
KSC1 252233Z 14006KT 26/20 A2995 RMK A01 T02640195  RH  066%=      5-min Rain = 0
KSC1 252234Z 14006KT 26/20 A2995 RMK A01 T02640195  RH  066%=      5-min Rain = 0
KSC1 252235Z 15007KT 26/19 A2995 RMK A01 T02630194  RH  065%=      5-min Rain = 0
KSC1 252236Z 14006KT 26/19 A2995 RMK A01 T02640193  RH  065%=      5-min Rain = 0
KSC1 252237Z 14005KT 26/20 A2995 RMK A01 T02640195  RH  065%=      5-min Rain = 0
KSC1 252238Z 14005KT 26/20 A2995 RMK A01 T02640195  RH  066%=      5-min Rain = 0
KSC1 252239Z 13005KT 26/20 A2995 RMK A01 T02640195  RH  066%=      5-min Rain = 0
KSC1 252240Z 14005KT 26/20 A2995 RMK A01 T02640195  RH  066%=      5-min Rain = 0
KSC1 252241Z 14004KT 26/20 A2995 RMK A01 T02630195  RH  066%=      5-min Rain = 0
KSC1 252242Z 14006KT 26/20 A2995 RMK A01 T02630196  RH  066%=      5-min Rain = 0
KSC1 252243Z 14005KT 26/20 A2995 RMK A01 T02630195  RH  066%=      5-min Rain = 0
KSC1 252244Z 14006KT 26/20 A2995 RMK A01 T02630195  RH  066%=      5-min Rain = 0
KSC1 252245Z 14005KT 26/20 A2995 RMK A01 T02620195  RH  066%=      5-min Rain = 0
KSC1 252246Z 13006KT 26/20 A2995 RMK A01 T02620195  RH  067%=      5-min Rain = 0
KSC1 252247Z 14005KT 26/20 A2995 RMK A01 T02620196  RH  067%=      5-min Rain = 0
KSC1 252248Z 13006KT 26/20 A2995 RMK A01 T02610196  RH  067%=      5-min Rain = 0
KSC1 252249Z 13006KT 26/20 A2995 RMK A01 T02610195  RH  067%=      5-min Rain = 0
KSC1 252250Z 14006KT 26/19 A2995 RMK A01 T02610194  RH  067%=      5-min Rain = 0
KSC1 252251Z 13005KT 26/19 A2995 RMK A01 T02610194  RH  066%=      5-min Rain = 0
KSC1 252252Z 14006KT 26/19 A2995 RMK A01 T02610193  RH  066%=      5-min Rain = 0
KSC1 252253Z 14004KT 26/19 A2995 RMK A01 T02620194  RH  066%=      5-min Rain = 0
KSC1 252254Z 16006KT 26/19 A2995 RMK A01 T02620193  RH  066%=      5-min Rain = 0
KSC1 252255Z 15006KT 26/19 A2995 RMK A01 T02620194  RH  066%=      5-min Rain = 0
KSC1 252256Z 15005KT 26/19 A2995 RMK A01 T02620193  RH  066%=      5-min Rain = 0
KSC1 252257Z 16004KT 26/19 A2995 RMK A01 T02620194  RH  066%=      5-min Rain = 0
KSC1 252258Z 15004KT 26/19 A2995 RMK A01 T02620194  RH  066%=      5-min Rain = 0
KSC1 252259Z 15004KT 26/19 A2995 RMK A01 T02610194  RH  066%=      5-min Rain = 0
KSC1 252300Z 16005KT 26/19 A2995 RMK A01 T02610194  RH  066%=      5-min Rain = 0
KSC1 252301Z 15005KT 26/19 A2995 RMK A01 T02610194  RH  067%=      5-min Rain = 0
KSC1 252302Z 15005KT 26/19 A2995 RMK A01 T02610194  RH  067%=      5-min Rain = 0
KSC1 252303Z 14005KT 26/19 A2995 RMK A01 T02610194  RH  067%=      5-min Rain = 0
KSC1 252304Z 14005KT 26/19 A2995 RMK A01 T02610194  RH  067%=      5-min Rain = 0
KSC1 252305Z 13004KT 26/20 A2994 RMK A01 T02600195  RH  067%=      5-min Rain = 0
KSC1 252306Z 14007KT 26/19 A2994 RMK A01 T02600193  RH  067%=      5-min Rain = 0
KSC1 252307Z 13005KT 26/19 A2994 RMK A01 T02600193  RH  066%=      5-min Rain = 0
KSC1 252308Z 13005KT 26/19 A2994 RMK A01 T02600194  RH  067%=      5-min Rain = 0
KSC1 252309Z 12005KT 26/20 A2994 RMK A01 T02600195  RH  067%=      5-min Rain = 0
KSC1 252310Z 11004KT 26/20 A2994 RMK A01 T02590196  RH  068%=      5-min Rain = 0
KSC1 252311Z 11005KT 26/20 A2994 RMK A01 T02570197  RH  069%=      5-min Rain = 0
KSC1 252312Z 11005KT 26/20 A2994 RMK A01 T02550197  RH  070%=      5-min Rain = 0
KSC1 252313Z 12005KT 25/20 A2994 RMK A01 T02540198  RH  071%=      5-min Rain = 0
KSC1 252314Z 13005KT 25/20 A2994 RMK A01 T02520198  RH  072%=      5-min Rain = 0
KSC1 252315Z 14005KT 25/20 A2994 RMK A01 T02510198  RH  072%=      5-min Rain = 0
KSC1 252316Z 14004KT 25/20 A2994 RMK A01 T02510198  RH  072%=      5-min Rain = 0
KSC1 252317Z 14005KT 25/20 A2994 RMK A01 T02510198  RH  072%=      5-min Rain = 0
KSC1 252318Z 14005KT 25/20 A2994 RMK A01 T02510198  RH  072%=      5-min Rain = 0
KSC1 252319Z 13005KT 25/20 A2994 RMK A01 T02510198  RH  072%=      5-min Rain = 0
KSC1 252320Z 14005KT 25/20 A2994 RMK A01 T02510198  RH  072%=      5-min Rain = 0
KSC1 252321Z 14006KT 25/20 A2994 RMK A01 T02510198  RH  072%=      5-min Rain = 0
KSC1 252322Z 13006KT 25/20 A2994 RMK A01 T02510197  RH  072%=      5-min Rain = 0
KSC1 252323Z 13006KT 25/20 A2994 RMK A01 T02510197  RH  072%=      5-min Rain = 0
KSC1 252324Z 14005KT 25/20 A2994 RMK A01 T02510196  RH  072%=      5-min Rain = 0
KSC1 252325Z 14005KT 25/20 A2994 RMK A01 T02520196  RH  071%=      5-min Rain = 0
KSC1 252326Z 14005KT 25/20 A2994 RMK A01 T02530196  RH  070%=      5-min Rain = 0
KSC1 252327Z 13004KT 25/20 A2994 RMK A01 T02540196  RH  070%=      5-min Rain = 0
KSC1 252328Z 13006KT 25/20 A2994 RMK A01 T02540196  RH  070%=      5-min Rain = 0
KSC1 252329Z 13005KT 25/20 A2994 RMK A01 T02540196  RH  070%=      5-min Rain = 0
KSC1 252330Z 13005KT 25/20 A2994 RMK A01 T02540196  RH  070%=      5-min Rain = 0
KSC1 252331Z 12006KT 25/20 A2994 RMK A01 T02540197  RH  071%=      5-min Rain = 0
KSC1 252332Z 11005KT 25/20 A2993 RMK A01 T02530197  RH  071%=      5-min Rain = 0
KSC1 252333Z 11005KT 25/20 A2993 RMK A01 T02530198  RH  072%=      5-min Rain = 0
KSC1 252334Z 12005KT 25/20 A2993 RMK A01 T02510198  RH  072%=      5-min Rain = 0
KSC1 252335Z 12004KT 25/20 A2993 RMK A01 T02500198  RH  073%=      5-min Rain = 0
KSC1 252336Z 13004KT 25/20 A2994 RMK A01 T02490198  RH  073%=      5-min Rain = 0
KSC1 252337Z 13004KT 25/20 A2994 RMK A01 T02490198  RH  073%=      5-min Rain = 0
KSC1 252338Z 14004KT 25/20 A2994 RMK A01 T02490198  RH  073%=      5-min Rain = 0
KSC1 252339Z 14004KT 25/20 A2994 RMK A01 T02500198  RH  073%=      5-min Rain = 0
KSC1 252340Z 14004KT 25/20 A2994 RMK A01 T02490198  RH  073%=      5-min Rain = 0
KSC1 252341Z 13004KT 25/20 A2994 RMK A01 T02490198  RH  073%=      5-min Rain = 0
KSC1 252342Z 13003KT 25/20 A2994 RMK A01 T02490198  RH  073%=      5-min Rain = 0
KSC1 252343Z 12003KT 25/20 A2994 RMK A01 T02490198  RH  073%=      5-min Rain = 0
KSC1 252344Z 13004KT 25/20 A2994 RMK A01 T02490198  RH  073%=      5-min Rain = 0
KSC1 252345Z 13004KT 25/20 A2994 RMK A01 T02490199  RH  074%=      5-min Rain = 0
KSC1 252346Z 13004KT 25/20 A2994 RMK A01 T02480199  RH  074%=      5-min Rain = 0
KSC1 252347Z 14005KT 25/20 A2994 RMK A01 T02480199  RH  074%=      5-min Rain = 0
KSC1 252348Z 14006KT 25/20 A2995 RMK A01 T02480198  RH  074%=      5-min Rain = 0
KSC1 252349Z 14006KT 25/20 A2995 RMK A01 T02480198  RH  074%=      5-min Rain = 0
KSC1 252350Z 14005KT 25/20 A2995 RMK A01 T02480197  RH  073%=      5-min Rain = 0
KSC1 252351Z 13005KT 25/20 A2995 RMK A01 T02490198  RH  073%=      5-min Rain = 0
KSC1 252352Z 13006KT 25/20 A2994 RMK A01 T02490198  RH  074%=      5-min Rain = 0
KSC1 252353Z 13005KT 25/20 A2994 RMK A01 T02490198  RH  073%=      5-min Rain = 0
KSC1 252354Z 13005KT 25/20 A2994 RMK A01 T02490198  RH  073%=      5-min Rain = 0
KSC1 252355Z 13005KT 25/20 A2994 RMK A01 T02490198  RH  073%=      5-min Rain = 0
KSC1 252356Z 12005KT 25/20 A2994 RMK A01 T02490198  RH  074%=      5-min Rain = 0
KSC1 252357Z 13005KT 25/20 A2994 RMK A01 T02480199  RH  074%=      5-min Rain = 0
KSC1 252358Z 13005KT 25/20 A2994 RMK A01 T02470199  RH  075%=      5-min Rain = 0
KSC1 252359Z 13005KT 25/20 A2994 RMK A01 T02470200  RH  075%=      5-min Rain = 0
KSC1 260000Z 13005KT 25/20 A2994 RMK A01 T02460199  RH  075%=      5-min Rain = 0
KSC1 260001Z 13005KT 25/20 A2994 RMK A01 T02460199  RH  075%=      5-min Rain = 0
KSC1 260002Z 13005KT 25/20 A2994 RMK A01 T02460199  RH  075%=      5-min Rain = 0
KSC1 260003Z 14006KT 25/20 A2994 RMK A01 T02460199  RH  075%=      5-min Rain = 0
KSC1 260004Z 14006KT 25/20 A2994 RMK A01 T02460199  RH  075%=      5-min Rain = 0
KSC1 260005Z 14006KT 25/20 A2995 RMK A01 T02460199  RH  075%=      5-min Rain = 0
KSC1 260006Z 14006KT 25/20 A2995 RMK A01 T02460199  RH  075%=      5-min Rain = 0
KSC1 260007Z 14005KT 25/20 A2995 RMK A01 T02460199  RH  075%=      5-min Rain = 0
KSC1 260008Z 14006KT 25/20 A2995 RMK A01 T02470199  RH  075%=      5-min Rain = 0
KSC1 260009Z 14006KT 25/20 A2994 RMK A01 T02460198  RH  074%=      5-min Rain = 0
KSC1 260010Z 14005KT 25/20 A2994 RMK A01 T02470198  RH  074%=      5-min Rain = 0
KSC1 260011Z 14006KT 25/20 A2994 RMK A01 T02470198  RH  074%=      5-min Rain = 0
KSC1 260012Z 14008KT 25/20 A2994 RMK A01 T02480198  RH  074%=      5-min Rain = 0
KSC1 260013Z 14008KT 25/20 A2994 RMK A01 T02490197  RH  073%=      5-min Rain = 0
KSC1 260014Z 14008KT 25/20 A2994 RMK A01 T02500197  RH  072%=      5-min Rain = 0
KSC1 260015Z 14007KT 25/20 A2994 RMK A01 T02510197  RH  072%=      5-min Rain = 0
KSC1 260016Z 14009KT 25/20 A2994 RMK A01 T02520196  RH  071%=      5-min Rain = 0
KSC1 260017Z 14009KT 25/20 A2994 RMK A01 T02530195  RH  070%=      5-min Rain = 0
KSC1 260018Z 14009KT 25/20 A2994 RMK A01 T02540195  RH  070%=      5-min Rain = 0
KSC1 260019Z 13008KT 26/20 A2994 RMK A01 T02550195  RH  070%=      5-min Rain = 0
KSC1 260020Z 13009KT 26/20 A2994 RMK A01 T02550195  RH  069%=      5-min Rain = 0
KSC1 260021Z 13008KT 26/20 A2994 RMK A01 T02550196  RH  070%=      5-min Rain = 0
KSC1 260022Z 13008KT 26/20 A2994 RMK A01 T02550196  RH  070%=      5-min Rain = 0
KSC1 260023Z 13008KT 25/20 A2994 RMK A01 T02540197  RH  071%=      5-min Rain = 0
KSC1 260024Z 13006KT 25/20 A2994 RMK A01 T02530197  RH  071%=      5-min Rain = 0
KSC1 260025Z 13008KT 25/20 A2994 RMK A01 T02520197  RH  071%=      5-min Rain = 0
KSC1 260026Z 14007KT 25/20 A2994 RMK A01 T02510196  RH  072%=      5-min Rain = 0
KSC1 260027Z 13007KT 25/20 A2994 RMK A01 T02510197  RH  072%=      5-min Rain = 0
KSC1 260028Z 13007KT 25/20 A2994 RMK A01 T02510197  RH  072%=      5-min Rain = 0
KSC1 260029Z 13006KT 25/20 A2994 RMK A01 T02500196  RH  072%=      5-min Rain = 0
KSC1 260030Z 14006KT 25/20 A2994 RMK A01 T02510196  RH  072%=      5-min Rain = 0
KSC1 260031Z 14005KT 25/20 A2994 RMK A01 T02510196  RH  072%=      5-min Rain = 0
KSC1 260032Z 14008KT 25/20 A2994 RMK A01 T02510195  RH  071%=      5-min Rain = 0
KSC1 260033Z 14008KT 25/19 A2994 RMK A01 T02520194  RH  070%=      5-min Rain = 0
KSC1 260034Z 14006KT 25/20 A2994 RMK A01 T02530195  RH  070%=      5-min Rain = 0
KSC1 260035Z 14009KT 25/19 A2994 RMK A01 T02540194  RH  070%=      5-min Rain = 0
KSC1 260036Z 13008KT 25/19 A2994 RMK A01 T02540194  RH  069%=      5-min Rain = 0
KSC1 260037Z 14010KT 26/19 A2994 RMK A01 T02550194  RH  069%=      5-min Rain = 0
KSC1 260038Z 13008KT 26/19 A2994 RMK A01 T02550193  RH  068%=      5-min Rain = 0
KSC1 260039Z 14007KT 26/19 A2994 RMK A01 T02560194  RH  069%=      5-min Rain = 0
KSC1 260040Z 14008KT 26/19 A2994 RMK A01 T02560194  RH  069%=      5-min Rain = 0
KSC1 260041Z 14008KT 26/19 A2995 RMK A01 T02560194  RH  069%=      5-min Rain = 0
KSC1 260042Z 14009KT 26/19 A2995 RMK A01 T02550194  RH  069%=      5-min Rain = 0
KSC1 260043Z 14006KT 26/19 A2995 RMK A01 T02550193  RH  068%=      5-min Rain = 0
KSC1 260044Z 13006KT 26/19 A2995 RMK A01 T02560194  RH  069%=      5-min Rain = 0
KSC1 260045Z 13007KT 26/19 A2995 RMK A01 T02560194  RH  069%=      5-min Rain = 0
KSC1 260046Z 13008KT 26/19 A2995 RMK A01 T02560194  RH  069%=      5-min Rain = 0
KSC1 260047Z 14008KT 26/19 A2995 RMK A01 T02560194  RH  069%=      5-min Rain = 0
KSC1 260048Z 13006KT 26/19 A2995 RMK A01 T02550194  RH  069%=      5-min Rain = 0
KSC1 260049Z 13006KT 26/20 A2995 RMK A01 T02550195  RH  069%=      5-min Rain = 0
KSC1 260050Z 12005KT 25/19 A2995 RMK A01 T02540194  RH  070%=      5-min Rain = 0
KSC1 260051Z 13006KT 25/20 A2995 RMK A01 T02530195  RH  070%=      5-min Rain = 0
KSC1 260052Z 13005KT 25/20 A2995 RMK A01 T02530195  RH  070%=      5-min Rain = 0
KSC1 260053Z 14006KT 25/20 A2995 RMK A01 T02520195  RH  070%=      5-min Rain = 0
KSC1 260054Z 14006KT 25/19 A2995 RMK A01 T02520194  RH  070%=      5-min Rain = 0
KSC1 260055Z 13005KT 25/19 A2995 RMK A01 T02520194  RH  070%=      5-min Rain = 0
KSC1 260056Z 12006KT 25/19 A2995 RMK A01 T02520194  RH  070%=      5-min Rain = 0
KSC1 260057Z 13006KT 25/19 A2995 RMK A01 T02520194  RH  070%=      5-min Rain = 0
KSC1 260058Z 13006KT 25/20 A2996 RMK A01 T02520195  RH  070%=      5-min Rain = 0
KSC1 260059Z 13006KT 25/20 A2996 RMK A01 T02520195  RH  071%=      5-min Rain = 0
KSC1 260100Z 14005G10KT 25/19 A2996 RMK A01 T02510194  RH  071%=      5-min Rain = 0
KSC1 260101Z 14007KT 25/19 A2996 RMK A01 T02510194  RH  070%=      5-min Rain = 0
KSC1 260102Z 14006KT 25/19 A2996 RMK A01 T02510193  RH  070%=      5-min Rain = 0
KSC1 260103Z 15007KT 25/19 A2996 RMK A01 T02520193  RH  070%=      5-min Rain = 0
KSC1 260104Z 14008KT 25/19 A2997 RMK A01 T02530192  RH  069%=      5-min Rain = 0
KSC1 260105Z 13007KT 25/19 A2997 RMK A01 T02540193  RH  069%=      5-min Rain = 0
KSC1 260106Z 14007KT 25/19 A2997 RMK A01 T02540193  RH  069%=      5-min Rain = 0
KSC1 260107Z 14005KT 25/19 A2997 RMK A01 T02540193  RH  069%=      5-min Rain = 0
KSC1 260108Z 13005KT 25/19 A2997 RMK A01 T02540194  RH  069%=      5-min Rain = 0
KSC1 260109Z 13006KT 25/19 A2996 RMK A01 T02530193  RH  069%=      5-min Rain = 0
KSC1 260110Z 13006KT 25/19 A2996 RMK A01 T02530193  RH  069%=      5-min Rain = 0
KSC1 260111Z 13007KT 25/19 A2996 RMK A01 T02530193  RH  070%=      5-min Rain = 0
KSC1 260112Z 12007KT 25/19 A2997 RMK A01 T02520194  RH  070%=      5-min Rain = 0
KSC1 260113Z 12008KT 25/19 A2997 RMK A01 T02520194  RH  070%=      5-min Rain = 0
KSC1 260114Z 13006KT 25/19 A2997 RMK A01 T02520194  RH  070%=      5-min Rain = 0
KSC1 260115Z 14006KT 25/19 A2998 RMK A01 T02510194  RH  070%=      5-min Rain = 0
KSC1 260116Z 14006KT 25/19 A2998 RMK A01 T02510194  RH  070%=      5-min Rain = 0
KSC1 260117Z 16005KT 25/19 A2998 RMK A01 T02510193  RH  070%=      5-min Rain = 0
KSC1 260118Z 17005KT 25/19 A2999 RMK A01 T02510193  RH  070%=      5-min Rain = 0
KSC1 260119Z 17006KT 25/19 A2999 RMK A01 T02510193  RH  070%=      5-min Rain = 0
KSC1 260120Z 19007KT 25/19 A30 RMK A01 T02510192  RH  070%=      5-min Rain = 0
KSC1 260121Z 21006KT 25/19 A30 RMK A01 T02520193  RH  070%=      5-min Rain = 0
KSC1 260122Z 21006KT 25/19 A30 RMK A01 T02520194  RH  070%=      5-min Rain = 0
KSC1 260123Z 21006KT 25/19 A3001 RMK A01 T02510194  RH  071%=      5-min Rain = 0
KSC1 260124Z 22006KT 25/20 A3001 RMK A01 T02510195  RH  071%=      5-min Rain = 0
KSC1 260125Z 22006KT 25/20 A3001 RMK A01 T02500195  RH  072%=      5-min Rain = 0
KSC1 260126Z 22005KT 25/20 A3001 RMK A01 T02490197  RH  073%=      5-min Rain = 0
KSC1 260127Z 22005KT 25/20 A3001 RMK A01 T02480196  RH  073%=      5-min Rain = 0
KSC1 260128Z 22005KT 25/20 A3001 RMK A01 T02470197  RH  074%=      5-min Rain = 0
KSC1 260129Z 21006KT 25/20 A3002 RMK A01 T02460197  RH  074%=      5-min Rain = 0
KSC1 260130Z 22005KT 25/20 A3002 RMK A01 T02450198  RH  075%=      5-min Rain = 0
KSC1 260131Z 22005KT 24/20 A3002 RMK A01 T02440198  RH  075%=      5-min Rain = 0
KSC1 260132Z 22004KT 24/20 A3002 RMK A01 T02440200  RH  076%=      5-min Rain = 0
KSC1 260133Z 21005KT 24/20 A3002 RMK A01 T02430200  RH  077%=      5-min Rain = 0
KSC1 260134Z 21005KT 24/20 A3002 RMK A01 T02410200  RH  078%=      5-min Rain = 0
KSC1 260135Z 21005KT 24/20 A3002 RMK A01 T02410201  RH  078%=      5-min Rain = 0
KSC1 260136Z 21005KT 24/20 A3002 RMK A01 T02400201  RH  079%=      5-min Rain = 0
KSC1 260137Z 20004KT 24/20 A3002 RMK A01 T02400202  RH  080%=      5-min Rain = 0
KSC1 260138Z 19004KT 24/20 A3002 RMK A01 T02390203  RH  080%=      5-min Rain = 0
KSC1 260139Z 18003KT 24/20 A3002 RMK A01 T02380203  RH  081%=      5-min Rain = 0.01
KSC1 260140Z 18002KT 24/20 A3002 RMK A01 T02380204  RH  082%=      5-min Rain = 0.01
KSC1 260141Z 18003KT 24/21 A3002 RMK A01 T02370205  RH  082%=      5-min Rain = 0.01
KSC1 260142Z 17003KT 24/20 A3002 RMK A01 T02360204  RH  082%=      5-min Rain = 0.01
KSC1 260143Z 19005KT 24/20 A3001 RMK A01 T02360204  RH  083%=      5-min Rain = 0.02
KSC1 260144Z 18005KT 24/21 A3001 RMK A01 T02350205  RH  083%=      5-min Rain = 0.01
KSC1 260145Z 19005KT 23/20 A3001 RMK A01 T02340204  RH  083%=      5-min Rain = 0
KSC1 260146Z 18006KT 23/20 A3001 RMK A01 T02340204  RH  083%=      5-min Rain = 0
KSC1 260147Z 18006KT 23/20 A3001 RMK A01 T02330202  RH  083%=      5-min Rain = 0
KSC1 260148Z 18005KT 23/20 A3001 RMK A01 T02330201  RH  082%=      5-min Rain = 0
KSC1 260149Z 17005KT 23/20 A3001 RMK A01 T02340203  RH  083%=      5-min Rain = 0
KSC1 260150Z 17005KT 23/20 A3001 RMK A01 T02340202  RH  082%=      5-min Rain = 0
KSC1 260151Z 16005KT 23/20 A3001 RMK A01 T02340203  RH  083%=      5-min Rain = 0
KSC1 260152Z 13006KT 23/21 A3001 RMK A01 T02330205  RH  084%=      5-min Rain = 0
KSC1 260153Z 12006KT 23/21 A3001 RMK A01 T02320208  RH  087%=      5-min Rain = 0
KSC1 260154Z 13004KT 23/21 A3001 RMK A01 T02300212  RH  090%=      5-min Rain = 0
KSC1 260155Z 13004KT 23/21 A30 RMK A01 T02280214  RH  092%=      5-min Rain = 0
KSC1 260156Z 12003KT 23/22 A30 RMK A01 T02270215  RH  093%=      5-min Rain = 0
KSC1 260157Z 11003KT 23/22 A30 RMK A01 T02260216  RH  094%=      5-min Rain = 0
KSC1 260158Z 10004KT 23/22 A2999 RMK A01 T02250217  RH  095%=      5-min Rain = 0
KSC1 260159Z 10004KT 22/22 A2999 RMK A01 T02240218  RH  096%=      5-min Rain = 0
KSC1 260200Z 10005KT 22/22 A2999 RMK A01 T02240219  RH  097%=      5-min Rain = 0
KSC1 260201Z 11005KT 22/22 A2998 RMK A01 T02230219  RH  098%=      5-min Rain = 0
KSC1 260202Z 11005KT 22/22 A2998 RMK A01 T02230220  RH  098%=      5-min Rain = 0
KSC1 260203Z 11006KT 22/22 A2998 RMK A01 T02220220  RH  099%=      5-min Rain = 0
KSC1 260204Z 11006KT 22/22 A2998 RMK A01 T02220220  RH  099%=      5-min Rain = 0
KSC1 260205Z 10006KT 22/22 A2997 RMK A01 T02220221  RH  099%=      5-min Rain = 0
KSC1 260206Z 10006KT 22/22 A2997 RMK A01 T02210221  RH  100%=      5-min Rain = 0
KSC1 260207Z 10007KT 22/22 A2997 RMK A01 T02210221  RH  100%=      5-min Rain = 0
KSC1 260208Z 10006KT 22/22 A2997 RMK A01 T02210220  RH  099%=      5-min Rain = 0
KSC1 260209Z 10006KT 22/22 A2997 RMK A01 T02210219  RH  099%=      5-min Rain = 0
KSC1 260210Z 11006KT 22/22 A2998 RMK A01 T02220219  RH  098%=      5-min Rain = 0
KSC1 260211Z 11007KT 22/22 A2998 RMK A01 T02220220  RH  099%=      5-min Rain = 0
KSC1 260212Z 11006KT 22/22 A2998 RMK A01 T02220220  RH  099%=      5-min Rain = 0
KSC1 260213Z 11005KT 22/22 A2998 RMK A01 T02210220  RH  099%=      5-min Rain = 0
KSC1 260214Z 12005KT 22/22 A2997 RMK A01 T02210220  RH  099%=      5-min Rain = 0
KSC1 260215Z 12005KT 22/22 A2997 RMK A01 T02210220  RH  100%=      5-min Rain = 0
KSC1 260216Z 13005KT 22/22 A2997 RMK A01 T02200220  RH  100%=      5-min Rain = 0
KSC1 260217Z 13006KT 22/22 A2997 RMK A01 T02200220  RH  100%=      5-min Rain = 0
KSC1 260218Z 13006KT 22/22 A2997 RMK A01 T02200219  RH  100%=      5-min Rain = 0
KSC1 260219Z 14006KT 22/22 A2997 RMK A01 T02200219  RH  099%=      5-min Rain = 0
KSC1 260220Z 14006KT 22/22 A2997 RMK A01 T02200217  RH  098%=      5-min Rain = 0
KSC1 260221Z 14007KT 22/22 A2997 RMK A01 T02210215  RH  096%=      5-min Rain = 0
KSC1 260222Z 12006KT 22/21 A2996 RMK A01 T02230213  RH  094%=      5-min Rain = 0
KSC1 260223Z 12006KT 23/21 A2996 RMK A01 T02250212  RH  093%=      5-min Rain = 0
KSC1 260224Z 13006KT 23/21 A2996 RMK A01 T02250211  RH  092%=      5-min Rain = 0
KSC1 260225Z 13007KT 23/21 A2996 RMK A01 T02250210  RH  091%=      5-min Rain = 0
KSC1 260226Z 13007KT 23/21 A2996 RMK A01 T02260210  RH  090%=      5-min Rain = 0
KSC1 260227Z 13007KT 23/21 A2996 RMK A01 T02260210  RH  090%=      5-min Rain = 0
KSC1 260228Z 12007KT 23/21 A2996 RMK A01 T02260209  RH  090%=      5-min Rain = 0
KSC1 260229Z 13008KT 23/21 A2996 RMK A01 T02260210  RH  090%=      5-min Rain = 0.01
KSC1 260230Z 13009KT 23/21 A2996 RMK A01 T02260210  RH  091%=      5-min Rain = 0
KSC1 260231Z 12008KT 23/21 A2996 RMK A01 T02250210  RH  091%=      5-min Rain = 0
KSC1 260232Z 13007KT 23/21 A2996 RMK A01 T02250210  RH  091%=      5-min Rain = 0
KSC1 260233Z 13008KT 22/21 A2995 RMK A01 T02240211  RH  092%=      5-min Rain = 0
KSC1 260234Z 12007KT 22/21 A2995 RMK A01 T02240211  RH  092%=      5-min Rain = 0
KSC1 260235Z 12007KT 22/21 A2995 RMK A01 T02240211  RH  092%=      5-min Rain = 0
KSC1 260236Z 12006KT 22/21 A2995 RMK A01 T02240211  RH  093%=      5-min Rain = 0
KSC1 260237Z 13007KT 22/21 A2995 RMK A01 T02230211  RH  093%=      5-min Rain = 0
KSC1 260238Z 13007KT 22/21 A2995 RMK A01 T02220211  RH  093%=      5-min Rain = 0
KSC1 260239Z 14007KT 22/21 A2996 RMK A01 T02220211  RH  093%=      5-min Rain = 0
KSC1 260240Z 14007KT 22/21 A2996 RMK A01 T02220211  RH  093%=      5-min Rain = 0
KSC1 260241Z 14007KT 22/21 A2996 RMK A01 T02220211  RH  093%=      5-min Rain = 0
KSC1 260242Z 14008KT 22/21 A2996 RMK A01 T02220212  RH  094%=      5-min Rain = 0
KSC1 260243Z 14008KT 22/21 A2996 RMK A01 T02220211  RH  094%=      5-min Rain = 0
KSC1 260244Z 14007KT 22/21 A2996 RMK A01 T02220211  RH  093%=      5-min Rain = 0
KSC1 260245Z 14008KT 22/21 A2996 RMK A01 T02220210  RH  093%=      5-min Rain = 0
KSC1 260246Z 14009KT 22/21 A2996 RMK A01 T02220208  RH  092%=      5-min Rain = 0
KSC1 260247Z 13008KT 22/21 A2996 RMK A01 T02230206  RH  090%=      5-min Rain = 0
KSC1 260248Z 13009KT 23/21 A2995 RMK A01 T02250205  RH  088%=      5-min Rain = 0
KSC1 260249Z 13009KT 23/20 A2995 RMK A01 T02260204  RH  087%=      5-min Rain = 0
KSC1 260250Z 13009KT 23/20 A2995 RMK A01 T02270203  RH  086%=      5-min Rain = 0
KSC1 260251Z 13009KT 23/20 A2995 RMK A01 T02280202  RH  086%=      5-min Rain = 0
KSC1 260252Z 14009KT 23/20 A2995 RMK A01 T02280202  RH  085%=      5-min Rain = 0
KSC1 260253Z 14009KT 23/20 A2996 RMK A01 T02280201  RH  085%=      5-min Rain = 0
KSC1 260254Z 14009KT 23/20 A2996 RMK A01 T02290201  RH  085%=      5-min Rain = 0
KSC1 260255Z 14009KT 23/20 A2996 RMK A01 T02290201  RH  084%=      5-min Rain = 0
KSC1 260256Z 14009KT 23/20 A2996 RMK A01 T02290201  RH  084%=      5-min Rain = 0
KSC1 260257Z 14011KT 23/20 A2996 RMK A01 T02290200  RH  084%=      5-min Rain = 0
KSC1 260258Z 14011KT 23/20 A2996 RMK A01 T02310200  RH  083%=      5-min Rain = 0
KSC1 260259Z 14011KT 23/20 A2996 RMK A01 T02320199  RH  082%=      5-min Rain = 0
KSC1 260300Z 14011KT 23/20 A2996 RMK A01 T02330200  RH  082%=      5-min Rain = 0
KSC1 260301Z 14012KT 23/20 A2995 RMK A01 T02330199  RH  081%=      5-min Rain = 0
KSC1 260302Z 13010G15KT 23/20 A2995 RMK A01 T02330199  RH  081%=      5-min Rain = 0
KSC1 260303Z 14010KT 23/20 A2995 RMK A01 T02330199  RH  081%=      5-min Rain = 0
KSC1 260304Z 14009KT 23/20 A2995 RMK A01 T02330200  RH  082%=      5-min Rain = 0
KSC1 260305Z 14011KT 23/20 A2995 RMK A01 T02320199  RH  082%=      5-min Rain = 0
KSC1 260306Z 14010KT 23/20 A2995 RMK A01 T02320199  RH  082%=      5-min Rain = 0
KSC1 260307Z 13011KT 23/20 A2995 RMK A01 T02320199  RH  082%=      5-min Rain = 0
KSC1 260308Z 13011KT 23/20 A2995 RMK A01 T02320198  RH  081%=      5-min Rain = 0
KSC1 260309Z 13010KT 23/20 A2995 RMK A01 T02320198  RH  081%=      5-min Rain = 0
KSC1 260310Z 13011KT 23/20 A2995 RMK A01 T02320199  RH  081%=      5-min Rain = 0
KSC1 260311Z 13010KT 23/20 A2995 RMK A01 T02320199  RH  082%=      5-min Rain = 0
KSC1 260312Z 13011KT 23/20 A2995 RMK A01 T02310199  RH  082%=      5-min Rain = 0
KSC1 260313Z 13008KT 23/20 A2994 RMK A01 T02300200  RH  083%=      5-min Rain = 0
KSC1 260314Z 13009KT 23/20 A2994 RMK A01 T02290200  RH  083%=      5-min Rain = 0
KSC1 260315Z 13009KT 23/20 A2994 RMK A01 T02280199  RH  084%=      5-min Rain = 0
KSC1 260316Z 12009KT 23/20 A2994 RMK A01 T02280199  RH  083%=      5-min Rain = 0
KSC1 260317Z 12009KT 23/20 A2994 RMK A01 T02280198  RH  083%=      5-min Rain = 0
KSC1 260318Z 12011KT 23/20 A2994 RMK A01 T02280197  RH  082%=      5-min Rain = 0
KSC1 260319Z 12012KT 23/20 A2994 RMK A01 T02290196  RH  081%=      5-min Rain = 0
KSC1 260320Z 12012KT 23/20 A2994 RMK A01 T02310195  RH  080%=      5-min Rain = 0
KSC1 260321Z 12012KT 23/20 A2994 RMK A01 T02320195  RH  080%=      5-min Rain = 0
KSC1 260322Z 12011KT 23/20 A2994 RMK A01 T02320195  RH  079%=      5-min Rain = 0
KSC1 260323Z 13012KT 23/20 A2994 RMK A01 T02320195  RH  079%=      5-min Rain = 0
KSC1 260324Z 13012KT 23/19 A2994 RMK A01 T02330194  RH  079%=      5-min Rain = 0
KSC1 260325Z 12013KT 23/19 A2994 RMK A01 T02330194  RH  079%=      5-min Rain = 0
KSC1 260326Z 12011KT 23/20 A2994 RMK A01 T02330195  RH  079%=      5-min Rain = 0
KSC1 260327Z 12012KT 23/20 A2994 RMK A01 T02330195  RH  079%=      5-min Rain = 0
KSC1 260328Z 12010KT 23/19 A2994 RMK A01 T02330194  RH  079%=      5-min Rain = 0
KSC1 260329Z 12011KT 23/19 A2994 RMK A01 T02330194  RH  078%=      5-min Rain = 0
KSC1 260330Z 13011KT 23/19 A2994 RMK A01 T02330193  RH  078%=      5-min Rain = 0
KSC1 260331Z 13011KT 23/19 A2994 RMK A01 T02340193  RH  077%=      5-min Rain = 0
KSC1 260332Z 13010KT 24/19 A2994 RMK A01 T02350193  RH  077%=      5-min Rain = 0
KSC1 260333Z 13012KT 24/19 A2995 RMK A01 T02350193  RH  077%=      5-min Rain = 0
KSC1 260334Z 13010KT 24/19 A2995 RMK A01 T02350193  RH  077%=      5-min Rain = 0
KSC1 260335Z 13009KT 24/19 A2995 RMK A01 T02350192  RH  077%=      5-min Rain = 0
KSC1 260336Z 13010KT 24/19 A2995 RMK A01 T02350193  RH  077%=      5-min Rain = 0
KSC1 260337Z 13010KT 23/19 A2995 RMK A01 T02340193  RH  078%=      5-min Rain = 0
KSC1 260338Z 13010KT 23/19 A2995 RMK A01 T02330193  RH  078%=      5-min Rain = 0
KSC1 260339Z 13010KT 23/19 A2995 RMK A01 T02330193  RH  078%=      5-min Rain = 0
KSC1 260340Z 12009KT 23/19 A2995 RMK A01 T02330193  RH  078%=      5-min Rain = 0
KSC1 260341Z 13008KT 23/19 A2995 RMK A01 T02330193  RH  079%=      5-min Rain = 0
KSC1 260342Z 13011G17KT 23/19 A2995 RMK A01 T02320192  RH  078%=      5-min Rain = 0
KSC1 260343Z 12010KT 23/19 A2995 RMK A01 T02330191  RH  077%=      5-min Rain = 0
KSC1 260344Z 12009KT 23/19 A2995 RMK A01 T02340191  RH  077%=      5-min Rain = 0
KSC1 260345Z 13009KT 24/19 A2995 RMK A01 T02350191  RH  076%=      5-min Rain = 0
KSC1 260346Z 13009KT 24/19 A2995 RMK A01 T02350191  RH  076%=      5-min Rain = 0
KSC1 260347Z 13010KT 24/19 A2996 RMK A01 T02360191  RH  076%=      5-min Rain = 0
KSC1 260348Z 13010KT 24/19 A2996 RMK A01 T02350191  RH  076%=      5-min Rain = 0
KSC1 260349Z 12009KT 24/19 A2996 RMK A01 T02360190  RH  076%=      5-min Rain = 0
KSC1 260350Z 12008KT 24/19 A2996 RMK A01 T02350191  RH  076%=      5-min Rain = 0
KSC1 260351Z 13008KT 24/19 A2996 RMK A01 T02350191  RH  076%=      5-min Rain = 0
KSC1 260352Z 12009KT 23/19 A2996 RMK A01 T02340191  RH  077%=      5-min Rain = 0
KSC1 260353Z 13008KT 23/19 A2996 RMK A01 T02330191  RH  077%=      5-min Rain = 0
KSC1 260354Z 13006KT 23/19 A2996 RMK A01 T02330192  RH  078%=      5-min Rain = 0
KSC1 260355Z 13009KT 23/19 A2996 RMK A01 T02320192  RH  078%=      5-min Rain = 0
KSC1 260356Z 13008KT 23/19 A2996 RMK A01 T02310192  RH  078%=      5-min Rain = 0
KSC1 260357Z 13008KT 23/19 A2996 RMK A01 T02310192  RH  078%=      5-min Rain = 0
KSC1 260358Z 13008KT 23/19 A2996 RMK A01 T02310193  RH  079%=      5-min Rain = 0
KSC1 260359Z 13008KT 23/19 A2996 RMK A01 T02310193  RH  079%=      5-min Rain = 0
KSC1 260400Z 13008KT 23/19 A2996 RMK A01 T02300193  RH  080%=      5-min Rain = 0
KSC1 260401Z 12007KT 23/19 A2996 RMK A01 T02290193  RH  080%=      5-min Rain = 0
KSC1 260402Z 13008KT 23/19 A2996 RMK A01 T02290193  RH  080%=      5-min Rain = 0
KSC1 260403Z 13008KT 23/19 A2996 RMK A01 T02280193  RH  081%=      5-min Rain = 0
KSC1 260404Z 13008KT 23/19 A2996 RMK A01 T02280193  RH  081%=      5-min Rain = 0
KSC1 260405Z 13007KT 23/19 A2996 RMK A01 T02270193  RH  081%=      5-min Rain = 0
KSC1 260406Z 13008KT 23/19 A2996 RMK A01 T02270193  RH  081%=      5-min Rain = 0
KSC1 260407Z 13007KT 23/19 A2996 RMK A01 T02260193  RH  082%=      5-min Rain = 0
KSC1 260408Z 13008KT 23/19 A2996 RMK A01 T02260193  RH  082%=      5-min Rain = 0
KSC1 260409Z 13008KT 23/19 A2996 RMK A01 T02260193  RH  081%=      5-min Rain = 0
KSC1 260410Z 13007KT 23/19 A2996 RMK A01 T02260193  RH  081%=      5-min Rain = 0
KSC1 260411Z 13007KT 23/19 A2996 RMK A01 T02260193  RH  081%=      5-min Rain = 0
KSC1 260412Z 13007KT 23/19 A2996 RMK A01 T02260193  RH  081%=      5-min Rain = 0
KSC1 260413Z 13007KT 23/19 A2996 RMK A01 T02260193  RH  082%=      5-min Rain = 0
KSC1 260414Z 13007KT 23/19 A2996 RMK A01 T02260193  RH  082%=      5-min Rain = 0
KSC1 260415Z 12007KT 23/19 A2996 RMK A01 T02250193  RH  082%=      5-min Rain = 0
KSC1 260416Z 13007KT 23/19 A2996 RMK A01 T02250192  RH  082%=      5-min Rain = 0
KSC1 260417Z 12007KT 23/19 A2996 RMK A01 T02250193  RH  082%=      5-min Rain = 0
KSC1 260418Z 13009KT 23/19 A2996 RMK A01 T02250193  RH  082%=      5-min Rain = 0
KSC1 260419Z 13009KT 23/19 A2996 RMK A01 T02260192  RH  082%=      5-min Rain = 0
KSC1 260420Z 13009KT 23/19 A2996 RMK A01 T02260192  RH  081%=      5-min Rain = 0
KSC1 260421Z 13008KT 23/19 A2996 RMK A01 T02270192  RH  081%=      5-min Rain = 0
KSC1 260422Z 13009KT 23/19 A2996 RMK A01 T02270192  RH  081%=      5-min Rain = 0
KSC1 260423Z 13010KT 23/19 A2996 RMK A01 T02270191  RH  080%=      5-min Rain = 0
KSC1 260424Z 13009KT 23/19 A2996 RMK A01 T02270191  RH  080%=      5-min Rain = 0
KSC1 260425Z 13008KT 23/19 A2996 RMK A01 T02280191  RH  080%=      5-min Rain = 0
KSC1 260426Z 13009KT 23/19 A2996 RMK A01 T02280191  RH  079%=      5-min Rain = 0
KSC1 260427Z 13008KT 23/19 A2996 RMK A01 T02280191  RH  079%=      5-min Rain = 0
KSC1 260428Z 13007KT 23/19 A2996 RMK A01 T02280191  RH  079%=      5-min Rain = 0
KSC1 260429Z 13007KT 23/19 A2996 RMK A01 T02280191  RH  079%=      5-min Rain = 0
KSC1 260430Z 13007KT 23/19 A2996 RMK A01 T02280191  RH  080%=      5-min Rain = 0
KSC1 260431Z 13008KT 23/19 A2996 RMK A01 T02280191  RH  080%=      5-min Rain = 0
KSC1 260432Z 13007KT 23/19 A2996 RMK A01 T02270190  RH  080%=      5-min Rain = 0
KSC1 260433Z 13007KT 23/19 A2996 RMK A01 T02280191  RH  080%=      5-min Rain = 0
KSC1 260434Z 13007KT 23/19 A2996 RMK A01 T02270190  RH  080%=      5-min Rain = 0
KSC1 260435Z 13008KT 23/19 A2996 RMK A01 T02270191  RH  080%=      5-min Rain = 0
KSC1 260436Z 13007KT 23/19 A2996 RMK A01 T02270190  RH  080%=      5-min Rain = 0
KSC1 260437Z 13008KT 23/19 A2996 RMK A01 T02270190  RH  080%=      5-min Rain = 0
KSC1 260438Z 13007KT 23/19 A2996 RMK A01 T02270190  RH  080%=      5-min Rain = 0
KSC1 260439Z 13009KT 23/19 A2996 RMK A01 T02270190  RH  080%=      5-min Rain = 0
KSC1 260440Z 13008KT 23/19 A2996 RMK A01 T02260190  RH  080%=      5-min Rain = 0
KSC1 260441Z 12010KT 23/19 A2996 RMK A01 T02270189  RH  079%=      5-min Rain = 0
KSC1 260442Z 13008KT 23/19 A2996 RMK A01 T02270189  RH  079%=      5-min Rain = 0
KSC1 260443Z 13009KT 23/19 A2996 RMK A01 T02280189  RH  079%=      5-min Rain = 0
KSC1 260444Z 13008KT 23/19 A2996 RMK A01 T02280189  RH  079%=      5-min Rain = 0
KSC1 260445Z 13008KT 23/19 A2996 RMK A01 T02280189  RH  079%=      5-min Rain = 0
KSC1 260446Z 13008KT 23/19 A2996 RMK A01 T02280189  RH  079%=      5-min Rain = 0
KSC1 260447Z 13008KT 23/19 A2996 RMK A01 T02280189  RH  079%=      5-min Rain = 0
KSC1 260448Z 13008KT 23/19 A2996 RMK A01 T02280189  RH  079%=      5-min Rain = 0
KSC1 260449Z 13008KT 23/19 A2996 RMK A01 T02270189  RH  079%=      5-min Rain = 0
KSC1 260450Z 13008KT 23/19 A2996 RMK A01 T02270189  RH  079%=      5-min Rain = 0
KSC1 260451Z 13009KT 23/19 A2996 RMK A01 T02270189  RH  079%=      5-min Rain = 0
KSC1 260452Z 13007KT 23/19 A2996 RMK A01 T02270188  RH  079%=      5-min Rain = 0
KSC1 260453Z 14007KT 23/19 A2996 RMK A01 T02270189  RH  079%=      5-min Rain = 0
KSC1 260454Z 13008KT 23/19 A2996 RMK A01 T02260189  RH  079%=      5-min Rain = 0
KSC1 260455Z 13008KT 23/19 A2996 RMK A01 T02260189  RH  079%=      5-min Rain = 0
KSC1 260456Z 13009KT 23/19 A2996 RMK A01 T02260188  RH  079%=      5-min Rain = 0
KSC1 260457Z 13008KT 23/19 A2996 RMK A01 T02260188  RH  079%=      5-min Rain = 0
KSC1 260458Z 14007KT 23/19 A2996 RMK A01 T02260188  RH  079%=      5-min Rain = 0
KSC1 260459Z 13008KT 23/19 A2996 RMK A01 T02260188  RH  079%=      5-min Rain = 0

Page generated in 0.0513 seconds.